Time,TemperatureF,DewpointF,PressureIn,WindDirection,WindDirectionDegrees,WindSpeedMPH,WindSpeedGustMPH,Humidity,HourlyPrecipIn,Conditions,Clouds,dailyrainin,SoftwareType,DateUTC
2013-02-15 00:00:00,20.8,15.4,30.40,South,173,0.0,2.0,79,0.00,,,0.00,meteohub,2013-02-15 07:00:00,
2013-02-15 00:01:00,20.8,15.4,30.40,South,173,0.0,2.0,79,0.00,,,0.00,meteohub,2013-02-15 07:01:00,
2013-02-15 00:03:00,20.8,15.4,30.40,South,173,0.0,2.0,79,0.00,,,0.00,meteohub,2013-02-15 07:03:00,
2013-02-15 00:04:00,20.8,15.4,30.40,South,173,0.0,2.0,79,0.00,,,0.00,meteohub,2013-02-15 07:04:00,
2013-02-15 00:06:00,20.8,15.4,30.40,South,173,0.0,2.0,79,0.00,,,0.00,meteohub,2013-02-15 07:06:00,
2013-02-15 00:08:00,20.8,15.4,30.40,South,173,0.0,2.0,79,0.00,,,0.00,meteohub,2013-02-15 07:08:00,
2013-02-15 00:09:00,20.8,15.4,30.40,South,173,0.0,2.0,79,0.00,,,0.00,meteohub,2013-02-15 07:09:00,
2013-02-15 00:11:00,20.8,15.4,30.40,South,173,0.0,2.0,79,0.00,,,0.00,meteohub,2013-02-15 07:11:00,
2013-02-15 00:12:00,20.8,15.4,30.41,South,173,0.0,2.0,79,0.00,,,0.00,meteohub,2013-02-15 07:12:00,
2013-02-15 00:14:00,20.7,15.3,30.41,South,173,0.0,2.0,79,0.00,,,0.00,meteohub,2013-02-15 07:14:00,
2013-02-15 00:18:00,20.7,15.3,30.40,South,173,0.0,0.0,79,0.00,,,0.00,meteohub,2013-02-15 07:18:00,
2013-02-15 00:19:00,20.7,15.3,30.40,South,173,0.0,0.0,79,0.00,,,0.00,meteohub,2013-02-15 07:19:00,
2013-02-15 00:20:00,20.7,15.3,30.40,South,173,0.0,0.0,79,0.00,,,0.00,meteohub,2013-02-15 07:20:00,
2013-02-15 00:24:00,20.7,15.3,30.41,South,173,0.0,1.0,79,0.00,,,0.00,meteohub,2013-02-15 07:24:00,
2013-02-15 00:25:00,20.7,15.3,30.41,South,173,0.0,1.0,79,0.00,,,0.00,meteohub,2013-02-15 07:25:00,
2013-02-15 00:27:00,20.5,15.1,30.41,South,173,0.0,1.0,79,0.00,,,0.00,meteohub,2013-02-15 07:27:00,
2013-02-15 00:30:00,20.5,15.1,30.41,South,173,0.0,1.0,79,0.00,,,0.00,meteohub,2013-02-15 07:30:00,
2013-02-15 00:32:00,20.5,15.1,30.41,South,173,0.0,1.0,79,0.00,,,0.00,meteohub,2013-02-15 07:32:00,
2013-02-15 00:33:00,20.5,15.1,30.41,South,173,1.0,1.0,79,0.00,,,0.00,meteohub,2013-02-15 07:33:00,
2013-02-15 00:34:00,20.3,14.9,30.41,South,173,2.0,2.0,79,0.00,,,0.00,meteohub,2013-02-15 07:34:00,
2013-02-15 00:35:00,20.3,14.9,30.41,South,173,2.0,0.0,79,0.00,,,0.00,meteohub,2013-02-15 07:35:00,
2013-02-15 00:37:00,20.1,14.7,30.41,South,173,2.0,0.0,79,0.00,,,0.00,meteohub,2013-02-15 07:37:00,
2013-02-15 00:40:00,20.1,14.7,30.41,South,173,2.0,0.0,79,0.00,,,0.00,meteohub,2013-02-15 07:40:00,
2013-02-15 00:41:00,20.1,14.7,30.41,South,173,2.0,2.0,79,0.00,,,0.00,meteohub,2013-02-15 07:41:00,
2013-02-15 00:45:00,19.9,14.5,30.41,North,-999,-999.0,2.0,79,0.00,,,0.00,meteohub,2013-02-15 07:45:00,
2013-02-15 00:46:00,19.9,14.5,30.41,North,-999,-999.0,2.0,79,0.00,,,0.00,meteohub,2013-02-15 07:46:00,
2013-02-15 00:49:00,19.8,14.5,30.41,North,-999,-999.0,2.0,80,0.00,,,0.00,meteohub,2013-02-15 07:49:00,
2013-02-15 00:51:00,19.8,14.5,30.41,North,-999,-999.0,2.0,80,0.00,,,0.00,meteohub,2013-02-15 07:51:00,
2013-02-15 00:55:00,19.8,14.5,30.42,North,-999,-999.0,2.0,80,0.00,,,0.00,meteohub,2013-02-15 07:55:00,
2013-02-15 00:56:00,19.8,14.5,30.42,North,-999,-999.0,-999.0,80,0.00,,,0.00,meteohub,2013-02-15 07:56:00,
2013-02-15 00:57:00,19.6,14.4,30.42,North,-999,-999.0,-999.0,80,0.00,,,0.00,meteohub,2013-02-15 07:57:00,
2013-02-15 01:00:00,19.6,14.4,30.41,North,-999,-999.0,-999.0,80,0.00,,,0.00,meteohub,2013-02-15 08:00:00,
2013-02-15 01:01:00,19.6,14.4,30.42,North,-999,-999.0,-999.0,80,0.00,,,0.00,meteohub,2013-02-15 08:01:00,
2013-02-15 01:02:00,19.6,14.4,30.42,North,-999,-999.0,-999.0,80,0.00,,,0.00,meteohub,2013-02-15 08:02:00,
2013-02-15 01:03:00,19.4,14.2,30.42,North,-999,-999.0,-999.0,80,0.00,,,0.00,meteohub,2013-02-15 08:03:00,
2013-02-15 01:06:00,19.2,14.0,30.42,WNW,299,2.0,-999.0,80,0.00,,,0.00,meteohub,2013-02-15 08:06:00,
2013-02-15 01:07:00,19.2,14.0,30.42,WNW,299,3.0,-999.0,80,0.00,,,0.00,meteohub,2013-02-15 08:07:00,
2013-02-15 01:08:00,19.2,14.0,30.42,WNW,299,2.0,-999.0,80,0.00,,,0.00,meteohub,2013-02-15 08:08:00,
2013-02-15 01:12:00,19.0,13.8,30.42,WNW,299,0.0,4.0,80,0.00,,,0.00,meteohub,2013-02-15 08:12:00,
2013-02-15 01:13:00,18.9,13.6,30.43,WNW,299,2.0,4.0,80,0.00,,,0.00,meteohub,2013-02-15 08:13:00,
2013-02-15 01:14:00,18.9,13.6,30.42,WNW,299,2.0,4.0,80,0.00,,,0.00,meteohub,2013-02-15 08:14:00,
2013-02-15 01:15:00,18.9,13.6,30.42,WNW,299,3.0,4.0,80,0.00,,,0.00,meteohub,2013-02-15 08:15:00,
2013-02-15 01:17:00,18.7,13.8,30.43,WNW,299,3.0,4.0,81,0.00,,,0.00,meteohub,2013-02-15 08:17:00,
2013-02-15 01:19:00,18.7,13.8,30.42,WNW,299,4.0,4.0,81,0.00,,,0.00,meteohub,2013-02-15 08:19:00,
2013-02-15 01:20:00,18.5,13.6,30.43,WNW,299,4.0,4.0,81,0.00,,,0.00,meteohub,2013-02-15 08:20:00,
2013-02-15 01:21:00,18.5,13.6,30.43,WNW,299,4.0,4.0,81,0.00,,,0.00,meteohub,2013-02-15 08:21:00,
2013-02-15 01:24:00,18.3,13.5,30.42,WNW,299,4.0,4.0,81,0.00,,,0.00,meteohub,2013-02-15 08:24:00,
2013-02-15 01:25:00,18.1,13.3,30.43,NW,304,3.0,4.0,81,0.00,,,0.00,meteohub,2013-02-15 08:25:00,
2013-02-15 01:27:00,18.1,13.3,30.43,NW,304,3.0,4.0,81,0.00,,,0.00,meteohub,2013-02-15 08:27:00,
2013-02-15 01:31:00,18.0,13.1,30.43,NW,304,3.0,5.0,81,0.00,,,0.00,meteohub,2013-02-15 08:31:00,
2013-02-15 01:32:00,18.0,13.1,30.42,NW,304,3.0,5.0,81,0.00,,,0.00,meteohub,2013-02-15 08:32:00,
2013-02-15 01:34:00,17.8,12.9,30.42,NW,304,3.0,5.0,81,0.00,,,0.00,meteohub,2013-02-15 08:34:00,
2013-02-15 01:36:00,17.8,12.9,30.42,NW,304,4.0,5.0,81,0.00,,,0.00,meteohub,2013-02-15 08:36:00,
2013-02-15 01:37:00,17.6,12.7,30.42,NW,304,4.0,5.0,81,0.00,,,0.00,meteohub,2013-02-15 08:37:00,
2013-02-15 01:40:00,17.4,12.6,30.42,WNW,299,4.0,5.0,81,0.00,,,0.00,meteohub,2013-02-15 08:40:00,
2013-02-15 01:41:00,17.4,12.6,30.42,WNW,293,4.0,6.0,81,0.00,,,0.00,meteohub,2013-02-15 08:41:00,
2013-02-15 01:42:00,17.4,12.6,30.42,WNW,295,5.0,6.0,81,0.00,,,0.00,meteohub,2013-02-15 08:42:00,
2013-02-15 01:46:00,17.2,12.7,30.42,WNW,294,4.0,6.0,82,0.00,,,0.00,meteohub,2013-02-15 08:46:00,
2013-02-15 01:47:00,17.2,12.7,30.42,WNW,296,3.0,6.0,82,0.00,,,0.00,meteohub,2013-02-15 08:47:00,
2013-02-15 01:51:00,17.2,12.7,30.42,WNW,294,3.0,6.0,82,0.00,,,0.00,meteohub,2013-02-15 08:51:00,
2013-02-15 01:52:00,17.2,12.7,30.42,WNW,296,4.0,6.0,82,0.00,,,0.00,meteohub,2013-02-15 08:52:00,
2013-02-15 01:54:00,17.2,12.7,30.42,WNW,292,3.0,6.0,82,0.00,,,0.00,meteohub,2013-02-15 08:54:00,
2013-02-15 01:57:00,17.1,12.6,30.43,WNW,297,4.0,6.0,82,0.00,,,0.00,meteohub,2013-02-15 08:57:00,
2013-02-15 01:59:00,17.1,12.6,30.43,WNW,289,5.0,6.0,82,0.00,,,0.00,meteohub,2013-02-15 08:59:00,
2013-02-15 02:02:00,17.1,12.6,30.43,NW,304,6.0,7.0,82,0.00,,,0.00,meteohub,2013-02-15 09:02:00,
2013-02-15 02:05:00,17.1,12.6,30.42,WNW,298,4.0,7.0,82,0.00,,,0.00,meteohub,2013-02-15 09:05:00,
2013-02-15 02:07:00,16.9,12.4,30.43,WNW,295,4.0,7.0,82,0.00,,,0.00,meteohub,2013-02-15 09:07:00,
2013-02-15 02:08:00,16.9,12.4,30.43,WNW,293,3.0,7.0,82,0.00,,,0.00,meteohub,2013-02-15 09:08:00,
2013-02-15 02:10:00,16.9,12.4,30.43,WNW,286,5.0,7.0,82,0.00,,,0.00,meteohub,2013-02-15 09:10:00,
2013-02-15 02:11:00,16.9,12.4,30.43,WNW,292,4.0,7.0,82,0.00,,,0.00,meteohub,2013-02-15 09:11:00,
2013-02-15 02:14:00,16.9,12.6,30.43,NW,305,3.0,7.0,83,0.00,,,0.00,meteohub,2013-02-15 09:14:00,
2013-02-15 02:15:00,16.9,12.6,30.43,NW,306,3.0,6.0,83,0.00,,,0.00,meteohub,2013-02-15 09:15:00,
2013-02-15 02:17:00,16.9,12.6,30.43,WNW,290,4.0,6.0,83,0.00,,,0.00,meteohub,2013-02-15 09:17:00,
2013-02-15 02:19:00,16.7,12.4,30.43,WNW,292,3.0,6.0,83,0.00,,,0.00,meteohub,2013-02-15 09:19:00,
2013-02-15 02:21:00,16.7,12.4,30.43,NW,304,6.0,6.0,83,0.00,,,0.00,meteohub,2013-02-15 09:21:00,
2013-02-15 02:22:00,16.5,12.2,30.43,WNW,282,6.0,6.0,83,0.00,,,0.00,meteohub,2013-02-15 09:22:00,
2013-02-15 02:24:00,16.5,12.2,30.43,West,277,5.0,6.0,83,0.00,,,0.00,meteohub,2013-02-15 09:24:00,
2013-02-15 02:25:00,16.5,12.2,30.43,WNW,299,5.0,6.0,83,0.00,,,0.00,meteohub,2013-02-15 09:25:00,
2013-02-15 02:27:00,16.5,12.2,30.43,WNW,286,6.0,7.0,83,0.00,,,0.00,meteohub,2013-02-15 09:27:00,
2013-02-15 02:31:00,16.5,12.2,30.43,WNW,286,6.0,7.0,83,0.00,,,0.00,meteohub,2013-02-15 09:31:00,
2013-02-15 02:32:00,16.3,12.0,30.43,WNW,303,3.0,7.0,83,0.00,,,0.00,meteohub,2013-02-15 09:32:00,
2013-02-15 02:36:00,16.3,12.0,30.43,WNW,290,6.0,7.0,83,0.00,,,0.00,meteohub,2013-02-15 09:36:00,
2013-02-15 02:37:00,16.3,12.0,30.43,WNW,288,5.0,7.0,83,0.00,,,0.00,meteohub,2013-02-15 09:37:00,
2013-02-15 02:40:00,16.3,12.0,30.43,West,279,5.0,7.0,83,0.00,,,0.00,meteohub,2013-02-15 09:40:00,
2013-02-15 02:42:00,16.3,12.0,30.43,West,277,4.0,7.0,83,0.00,,,0.00,meteohub,2013-02-15 09:42:00,
2013-02-15 02:45:00,16.2,11.8,30.43,WNW,297,4.0,7.0,83,0.00,,,0.00,meteohub,2013-02-15 09:45:00,
2013-02-15 02:48:00,16.2,11.8,30.42,WNW,294,4.0,7.0,83,0.00,,,0.00,meteohub,2013-02-15 09:48:00,
2013-02-15 02:49:00,16.2,11.8,30.43,WNW,287,3.0,7.0,83,0.00,,,0.00,meteohub,2013-02-15 09:49:00,
2013-02-15 02:50:00,16.0,11.7,30.42,WNW,294,5.0,7.0,83,0.00,,,0.00,meteohub,2013-02-15 09:50:00,
2013-02-15 02:54:00,16.0,11.7,30.43,West,276,2.0,7.0,83,0.00,,,0.00,meteohub,2013-02-15 09:54:00,
2013-02-15 02:56:00,16.0,11.7,30.42,WSW,250,2.0,7.0,83,0.00,,,0.00,meteohub,2013-02-15 09:56:00,
2013-02-15 02:57:00,16.0,11.7,30.43,WSW,250,2.0,7.0,83,0.00,,,0.00,meteohub,2013-02-15 09:57:00,
2013-02-15 03:01:00,16.0,11.7,30.43,WSW,252,0.0,7.0,83,0.00,,,0.00,meteohub,2013-02-15 10:01:00,
2013-02-15 03:02:00,16.0,11.7,30.43,WSW,252,2.0,7.0,83,0.00,,,0.00,meteohub,2013-02-15 10:02:00,
2013-02-15 03:03:00,16.2,11.8,30.43,WSW,252,0.0,7.0,83,0.00,,,0.00,meteohub,2013-02-15 10:03:00,
2013-02-15 03:04:00,16.0,11.7,30.43,WSW,252,0.0,7.0,83,0.00,,,0.00,meteohub,2013-02-15 10:04:00,
2013-02-15 03:07:00,16.0,12.0,30.43,WSW,252,1.0,7.0,84,0.00,,,0.00,meteohub,2013-02-15 10:07:00,
2013-02-15 03:08:00,16.0,12.0,30.43,WSW,252,0.0,7.0,84,0.00,,,0.00,meteohub,2013-02-15 10:08:00,
2013-02-15 03:10:00,16.2,12.2,30.43,WSW,252,0.0,7.0,84,0.00,,,0.00,meteohub,2013-02-15 10:10:00,
2013-02-15 03:11:00,16.2,12.2,30.43,WSW,252,0.0,5.0,84,0.00,,,0.00,meteohub,2013-02-15 10:11:00,
2013-02-15 03:13:00,16.2,12.2,30.43,WSW,252,0.0,5.0,84,0.00,,,0.00,meteohub,2013-02-15 10:13:00,
2013-02-15 03:15:00,16.2,11.8,30.43,WSW,252,1.0,5.0,83,0.00,,,0.00,meteohub,2013-02-15 10:15:00,
2013-02-15 03:17:00,16.2,11.8,30.43,WSW,252,2.0,2.0,83,0.00,,,0.00,meteohub,2013-02-15 10:17:00,
2013-02-15 03:18:00,16.0,11.7,30.43,WSW,252,2.0,2.0,83,0.00,,,0.00,meteohub,2013-02-15 10:18:00,
2013-02-15 03:20:00,16.0,11.7,30.43,WSW,252,1.0,2.0,83,0.00,,,0.00,meteohub,2013-02-15 10:20:00,
2013-02-15 03:21:00,16.0,11.7,30.43,WSW,252,1.0,3.0,83,0.00,,,0.00,meteohub,2013-02-15 10:21:00,
2013-02-15 03:22:00,16.0,11.7,30.43,WSW,252,0.0,3.0,83,0.00,,,0.00,meteohub,2013-02-15 10:22:00,
2013-02-15 03:24:00,15.8,11.5,30.43,WSW,252,0.0,3.0,83,0.00,,,0.00,meteohub,2013-02-15 10:24:00,
2013-02-15 03:25:00,15.8,11.5,30.43,WSW,252,0.0,3.0,83,0.00,,,0.00,meteohub,2013-02-15 10:25:00,
2013-02-15 03:26:00,15.6,11.3,30.43,WSW,252,0.0,3.0,83,0.00,,,0.00,meteohub,2013-02-15 10:26:00,
2013-02-15 03:28:00,15.6,11.3,30.43,WSW,252,0.0,3.0,83,0.00,,,0.00,meteohub,2013-02-15 10:28:00,
2013-02-15 03:31:00,15.4,11.1,30.43,WSW,252,0.0,3.0,83,0.00,,,0.00,meteohub,2013-02-15 10:31:00,
2013-02-15 03:33:00,15.4,11.1,30.42,WSW,252,0.0,3.0,83,0.00,,,0.00,meteohub,2013-02-15 10:33:00,
2013-02-15 03:34:00,15.4,11.1,30.42,WSW,252,0.0,3.0,83,0.00,,,0.00,meteohub,2013-02-15 10:34:00,
2013-02-15 03:37:00,15.3,11.1,30.43,North,-999,-999.0,2.0,83,0.00,,,0.00,meteohub,2013-02-15 10:37:00,
2013-02-15 03:39:00,15.3,11.1,30.42,North,-999,-999.0,2.0,83,0.00,,,0.00,meteohub,2013-02-15 10:39:00,
2013-02-15 03:41:00,15.3,11.1,30.42,North,-999,-999.0,0.0,83,0.00,,,0.00,meteohub,2013-02-15 10:41:00,
2013-02-15 03:42:00,15.3,11.1,30.42,North,-999,-999.0,0.0,83,0.00,,,0.00,meteohub,2013-02-15 10:42:00,
2013-02-15 03:45:00,15.1,10.9,30.42,North,-999,-999.0,0.0,83,0.00,,,0.00,meteohub,2013-02-15 10:45:00,
2013-02-15 03:46:00,15.1,10.9,30.42,North,-999,-999.0,-999.0,83,0.00,,,0.00,meteohub,2013-02-15 10:46:00,
2013-02-15 03:47:00,15.1,10.9,30.42,North,-999,-999.0,-999.0,83,0.00,,,0.00,meteohub,2013-02-15 10:47:00,
2013-02-15 03:50:00,15.1,10.9,30.43,North,-999,-999.0,-999.0,83,0.00,,,0.00,meteohub,2013-02-15 10:50:00,
2013-02-15 03:51:00,15.1,10.9,30.43,North,-999,-999.0,-999.0,83,0.00,,,0.00,meteohub,2013-02-15 10:51:00,
2013-02-15 03:52:00,15.1,10.9,30.43,North,-999,-999.0,-999.0,83,0.00,,,0.00,meteohub,2013-02-15 10:52:00,
2013-02-15 03:53:00,15.1,10.9,30.43,North,-999,-999.0,-999.0,83,0.00,,,0.00,meteohub,2013-02-15 10:53:00,
2013-02-15 03:57:00,15.1,10.9,30.43,North,-999,-999.0,-999.0,83,0.00,,,0.00,meteohub,2013-02-15 10:57:00,
2013-02-15 03:59:00,14.9,10.8,30.43,North,-999,-999.0,-999.0,83,0.00,,,0.00,meteohub,2013-02-15 10:59:00,
2013-02-15 04:01:00,14.9,10.8,30.43,North,-999,-999.0,-999.0,83,0.00,,,0.00,meteohub,2013-02-15 11:01:00,
2013-02-15 04:02:00,14.7,10.6,30.43,North,-999,-999.0,-999.0,83,0.00,,,0.00,meteohub,2013-02-15 11:02:00,
2013-02-15 04:03:00,14.7,10.6,30.43,North,-999,-999.0,-999.0,83,0.00,,,0.00,meteohub,2013-02-15 11:03:00,
2013-02-15 04:06:00,14.5,10.4,30.43,North,-999,-999.0,-999.0,83,0.00,,,0.00,meteohub,2013-02-15 11:06:00,
2013-02-15 04:07:00,14.5,10.4,30.43,North,-999,-999.0,-999.0,83,0.00,,,0.00,meteohub,2013-02-15 11:07:00,
2013-02-15 04:08:00,14.5,10.4,30.43,North,-999,-999.0,-999.0,83,0.00,,,0.00,meteohub,2013-02-15 11:08:00,
2013-02-15 04:10:00,14.4,10.2,30.43,North,-999,-999.0,-999.0,83,0.00,,,0.00,meteohub,2013-02-15 11:10:00,
2013-02-15 04:12:00,14.4,10.2,30.43,WSW,252,0.0,-999.0,83,0.00,,,0.00,meteohub,2013-02-15 11:12:00,
2013-02-15 04:13:00,14.4,10.2,30.43,WSW,252,0.0,-999.0,83,0.00,,,0.00,meteohub,2013-02-15 11:13:00,
2013-02-15 04:15:00,14.4,10.2,30.43,WSW,252,0.0,-999.0,83,0.00,,,0.00,meteohub,2013-02-15 11:15:00,
2013-02-15 04:18:00,14.2,10.0,30.43,WSW,252,0.0,0.0,83,0.00,,,0.00,meteohub,2013-02-15 11:18:00,
2013-02-15 04:20:00,14.2,9.7,30.43,WSW,252,0.0,0.0,82,0.00,,,0.00,meteohub,2013-02-15 11:20:00,
2013-02-15 04:22:00,13.8,9.3,30.43,WSW,252,0.0,0.0,82,0.00,,,0.00,meteohub,2013-02-15 11:22:00,
2013-02-15 04:23:00,13.8,9.3,30.43,WSW,252,0.0,0.0,82,0.00,,,0.00,meteohub,2013-02-15 11:23:00,
2013-02-15 04:25:00,13.6,9.1,30.43,WSW,252,0.0,0.0,82,0.00,,,0.00,meteohub,2013-02-15 11:25:00,
2013-02-15 04:27:00,13.6,9.5,30.43,WSW,252,0.0,0.0,83,0.00,,,0.00,meteohub,2013-02-15 11:27:00,
2013-02-15 04:31:00,13.5,9.3,30.43,WSW,252,0.0,0.0,83,0.00,,,0.00,meteohub,2013-02-15 11:31:00,
2013-02-15 04:32:00,13.6,9.5,30.43,WSW,252,0.0,0.0,83,0.00,,,0.00,meteohub,2013-02-15 11:32:00,
2013-02-15 04:33:00,13.5,9.3,30.43,WSW,252,0.0,0.0,83,0.00,,,0.00,meteohub,2013-02-15 11:33:00,
2013-02-15 04:34:00,13.5,9.3,30.43,WSW,252,0.0,0.0,83,0.00,,,0.00,meteohub,2013-02-15 11:34:00,
2013-02-15 04:37:00,13.5,9.3,30.43,WSW,252,0.0,0.0,83,0.00,,,0.00,meteohub,2013-02-15 11:37:00,
2013-02-15 04:38:00,13.5,9.3,30.43,WSW,252,0.0,0.0,83,0.00,,,0.00,meteohub,2013-02-15 11:38:00,
2013-02-15 04:39:00,13.5,9.3,30.43,WSW,252,0.0,0.0,83,0.00,,,0.00,meteohub,2013-02-15 11:39:00,
2013-02-15 04:43:00,13.5,9.3,30.43,WSW,252,0.0,0.0,83,0.00,,,0.00,meteohub,2013-02-15 11:43:00,
2013-02-15 04:45:00,13.5,9.3,30.43,WSW,252,0.0,0.0,83,0.00,,,0.00,meteohub,2013-02-15 11:45:00,
2013-02-15 04:46:00,13.5,9.3,30.42,WSW,252,0.0,0.0,83,0.00,,,0.00,meteohub,2013-02-15 11:46:00,
2013-02-15 04:48:00,13.5,9.3,30.42,WSW,252,0.0,0.0,83,0.00,,,0.00,meteohub,2013-02-15 11:48:00,
2013-02-15 04:50:00,13.6,9.7,30.42,WSW,252,0.0,0.0,84,0.00,,,0.00,meteohub,2013-02-15 11:50:00,
2013-02-15 04:51:00,13.6,9.7,30.42,WSW,252,0.0,0.0,84,0.00,,,0.00,meteohub,2013-02-15 11:51:00,
2013-02-15 04:52:00,13.6,9.7,30.42,WSW,252,0.0,0.0,84,0.00,,,0.00,meteohub,2013-02-15 11:52:00,
2013-02-15 04:56:00,13.8,9.9,30.42,WSW,252,1.0,0.0,84,0.00,,,0.00,meteohub,2013-02-15 11:56:00,
2013-02-15 04:57:00,13.8,9.9,30.42,WSW,252,2.0,0.0,84,0.00,,,0.00,meteohub,2013-02-15 11:57:00,
2013-02-15 05:02:00,14.0,10.4,30.42,WSW,252,0.0,2.0,85,0.00,,,0.00,meteohub,2013-02-15 12:02:00,
2013-02-15 05:03:00,14.2,10.6,30.42,WSW,252,0.0,2.0,85,0.00,,,0.00,meteohub,2013-02-15 12:03:00,
2013-02-15 05:04:00,14.2,10.6,30.42,WSW,252,0.0,2.0,85,0.00,,,0.00,meteohub,2013-02-15 12:04:00,
2013-02-15 05:09:00,14.2,10.6,30.42,WSW,252,0.0,2.0,85,0.00,,,0.00,meteohub,2013-02-15 12:09:00,
2013-02-15 05:10:00,14.2,10.6,30.42,WSW,252,0.0,2.0,85,0.00,,,0.00,meteohub,2013-02-15 12:10:00,
2013-02-15 05:15:00,14.2,10.2,30.43,WSW,252,0.0,2.0,84,0.00,,,0.00,meteohub,2013-02-15 12:15:00,
2013-02-15 05:16:00,14.0,10.0,30.43,WSW,252,0.0,2.0,84,0.00,,,0.00,meteohub,2013-02-15 12:16:00,
2013-02-15 05:17:00,14.0,10.0,30.43,WSW,252,0.0,2.0,84,0.00,,,0.00,meteohub,2013-02-15 12:17:00,
2013-02-15 05:18:00,14.0,10.0,30.43,WSW,252,0.0,2.0,84,0.00,,,0.00,meteohub,2013-02-15 12:18:00,
2013-02-15 05:21:00,13.8,9.9,30.42,WSW,252,0.0,2.0,84,0.00,,,0.00,meteohub,2013-02-15 12:21:00,
2013-02-15 05:22:00,13.8,9.9,30.43,WSW,252,0.0,2.0,84,0.00,,,0.00,meteohub,2013-02-15 12:22:00,
2013-02-15 05:23:00,13.8,9.9,30.42,WSW,252,0.0,2.0,84,0.00,,,0.00,meteohub,2013-02-15 12:23:00,
2013-02-15 05:24:00,13.8,9.9,30.42,WSW,252,0.0,2.0,84,0.00,,,0.00,meteohub,2013-02-15 12:24:00,
2013-02-15 05:27:00,13.8,9.9,30.43,WSW,252,0.0,1.0,84,0.00,,,0.00,meteohub,2013-02-15 12:27:00,
2013-02-15 05:30:00,13.6,9.7,30.43,WSW,252,0.0,0.0,84,0.00,,,0.00,meteohub,2013-02-15 12:30:00,
2013-02-15 05:31:00,13.6,9.7,30.43,WSW,252,1.0,0.0,84,0.00,,,0.00,meteohub,2013-02-15 12:31:00,
2013-02-15 05:32:00,13.6,9.7,30.43,WSW,252,1.0,0.0,84,0.00,,,0.00,meteohub,2013-02-15 12:32:00,
2013-02-15 05:34:00,13.5,9.5,30.43,WSW,252,1.0,0.0,84,0.00,,,0.00,meteohub,2013-02-15 12:34:00,
2013-02-15 05:37:00,13.5,9.5,30.43,WSW,252,0.0,1.0,84,0.00,,,0.00,meteohub,2013-02-15 12:37:00,
2013-02-15 05:40:00,13.5,9.5,30.43,WSW,252,0.0,1.0,84,0.00,,,0.00,meteohub,2013-02-15 12:40:00,
2013-02-15 05:43:00,13.5,9.9,30.43,WSW,252,0.0,2.0,85,0.00,,,0.00,meteohub,2013-02-15 12:43:00,
2013-02-15 05:45:00,13.5,9.9,30.43,WSW,252,0.0,2.0,85,0.00,,,0.00,meteohub,2013-02-15 12:45:00,
2013-02-15 05:46:00,13.5,9.9,30.43,WSW,252,0.0,2.0,85,0.00,,,0.00,meteohub,2013-02-15 12:46:00,
2013-02-15 05:48:00,13.3,9.7,30.43,WSW,252,1.0,2.0,85,0.00,,,0.00,meteohub,2013-02-15 12:48:00,
2013-02-15 05:50:00,13.5,9.9,30.43,WSW,252,1.0,2.0,85,0.00,,,0.00,meteohub,2013-02-15 12:50:00,
2013-02-15 05:51:00,13.5,9.9,30.43,WSW,252,1.0,2.0,85,0.00,,,0.00,meteohub,2013-02-15 12:51:00,
2013-02-15 05:54:00,13.5,9.9,30.44,WSW,252,3.0,3.0,85,0.00,,,0.00,meteohub,2013-02-15 12:54:00,
2013-02-15 05:55:00,13.5,9.9,30.44,WSW,252,1.0,2.0,85,0.00,,,0.00,meteohub,2013-02-15 12:55:00,
2013-02-15 05:56:00,13.5,9.9,30.44,WSW,252,2.0,2.0,85,0.00,,,0.00,meteohub,2013-02-15 12:56:00,
2013-02-15 05:57:00,13.5,9.9,30.44,WSW,252,1.0,2.0,85,0.00,,,0.00,meteohub,2013-02-15 12:57:00,
2013-02-15 06:00:00,13.5,9.9,30.44,WSW,252,1.0,2.0,85,0.00,,,0.00,meteohub,2013-02-15 13:00:00,
2013-02-15 06:02:00,13.6,10.0,30.44,WSW,252,1.0,3.0,85,0.00,,,0.00,meteohub,2013-02-15 13:02:00,
2013-02-15 06:03:00,13.6,10.0,30.44,WSW,252,1.0,3.0,85,0.00,,,0.00,meteohub,2013-02-15 13:03:00,
2013-02-15 06:06:00,13.8,10.2,30.45,WSW,252,1.0,3.0,85,0.00,,,0.00,meteohub,2013-02-15 13:06:00,
2013-02-15 06:07:00,13.8,10.2,30.45,WSW,252,0.0,3.0,85,0.00,,,0.00,meteohub,2013-02-15 13:07:00,
2013-02-15 06:09:00,13.8,10.2,30.45,WSW,252,0.0,3.0,85,0.00,,,0.00,meteohub,2013-02-15 13:09:00,
2013-02-15 06:11:00,13.8,10.2,30.45,WSW,252,0.0,3.0,85,0.00,,,0.00,meteohub,2013-02-15 13:11:00,
2013-02-15 06:12:00,13.8,10.2,30.45,WSW,252,0.0,3.0,85,0.00,,,0.00,meteohub,2013-02-15 13:12:00,
2013-02-15 06:13:00,14.0,10.4,30.45,WSW,252,0.0,3.0,85,0.00,,,0.00,meteohub,2013-02-15 13:13:00,
2013-02-15 06:16:00,14.2,10.8,30.45,WSW,252,0.0,3.0,86,0.00,,,0.00,meteohub,2013-02-15 13:16:00,
2013-02-15 06:17:00,14.2,10.8,30.46,WSW,252,0.0,2.0,86,0.00,,,0.00,meteohub,2013-02-15 13:17:00,
2013-02-15 06:18:00,14.2,10.8,30.46,WSW,252,0.0,2.0,86,0.00,,,0.00,meteohub,2013-02-15 13:18:00,
2013-02-15 06:21:00,14.4,10.9,30.46,WSW,252,0.0,2.0,86,0.00,,,0.00,meteohub,2013-02-15 13:21:00,
2013-02-15 06:22:00,14.4,10.9,30.46,WSW,252,0.0,2.0,86,0.00,,,0.00,meteohub,2013-02-15 13:22:00,
2013-02-15 06:24:00,14.5,11.1,30.46,WSW,252,1.0,2.0,86,0.00,,,0.00,meteohub,2013-02-15 13:24:00,
2013-02-15 06:25:00,14.5,11.1,30.47,WSW,252,1.0,2.0,86,0.00,,,0.00,meteohub,2013-02-15 13:25:00,
2013-02-15 06:26:00,14.5,11.1,30.47,WSW,252,1.0,2.0,86,0.00,,,0.00,meteohub,2013-02-15 13:26:00,
2013-02-15 06:27:00,14.5,11.1,30.46,WSW,252,1.0,2.0,86,0.00,,,0.00,meteohub,2013-02-15 13:27:00,
2013-02-15 06:29:00,14.5,11.1,30.47,WSW,252,0.0,2.0,86,0.00,,,0.00,meteohub,2013-02-15 13:29:00,
2013-02-15 06:30:00,14.7,11.3,30.47,WSW,252,1.0,3.0,86,0.00,,,0.00,meteohub,2013-02-15 13:30:00,
2013-02-15 06:33:00,14.7,11.3,30.47,WSW,252,2.0,3.0,86,0.00,,,0.00,meteohub,2013-02-15 13:33:00,
2013-02-15 06:34:00,14.7,11.3,30.47,WSW,252,1.0,3.0,86,0.00,,,0.00,meteohub,2013-02-15 13:34:00,
2013-02-15 06:36:00,14.7,11.3,30.47,WSW,252,1.0,3.0,86,0.00,,,0.00,meteohub,2013-02-15 13:36:00,
2013-02-15 06:39:00,14.7,11.3,30.47,WSW,252,0.0,3.0,86,0.00,,,0.00,meteohub,2013-02-15 13:39:00,
2013-02-15 06:41:00,14.7,11.3,30.47,WSW,252,0.0,3.0,86,0.00,,,0.00,meteohub,2013-02-15 13:41:00,
2013-02-15 06:42:00,14.7,11.3,30.48,WSW,252,2.0,3.0,86,0.00,,,0.00,meteohub,2013-02-15 13:42:00,
2013-02-15 07:31:00,16.0,12.6,30.47,WSW,252,0.0,2.0,86,0.00,,,0.00,meteohub,2013-02-15 14:31:00,
2013-02-15 07:32:00,16.0,12.6,30.48,WSW,252,0.0,2.0,86,0.00,,,0.00,meteohub,2013-02-15 14:32:00,
2013-02-15 07:33:00,16.0,12.6,30.48,WSW,252,2.0,2.0,86,0.00,,,0.00,meteohub,2013-02-15 14:33:00,
2013-02-15 07:37:00,16.2,12.7,30.48,WSW,252,1.0,2.0,86,0.00,,,0.00,meteohub,2013-02-15 14:37:00,
2013-02-15 07:39:00,16.2,12.7,30.48,WSW,252,1.0,2.0,86,0.00,,,0.00,meteohub,2013-02-15 14:39:00,
2013-02-15 07:42:00,16.2,12.7,30.48,WSW,252,2.0,2.0,86,0.00,,,0.00,meteohub,2013-02-15 14:42:00,
2013-02-15 07:44:00,16.3,12.9,30.48,WSW,252,3.0,3.0,86,0.00,,,0.00,meteohub,2013-02-15 14:44:00,
2013-02-15 07:47:00,16.3,12.9,30.48,WSW,252,3.0,4.0,86,0.00,,,0.00,meteohub,2013-02-15 14:47:00,
2013-02-15 07:49:00,16.5,13.1,30.48,WSW,252,3.0,4.0,86,0.00,,,0.00,meteohub,2013-02-15 14:49:00,
2013-02-15 07:51:00,16.7,13.3,30.48,WSW,252,2.0,5.0,86,0.00,,,0.00,meteohub,2013-02-15 14:51:00,
2013-02-15 07:52:00,16.7,13.3,30.48,WSW,252,3.0,5.0,86,0.00,,,0.00,meteohub,2013-02-15 14:52:00,
2013-02-15 07:56:00,17.1,13.6,30.48,WSW,252,4.0,5.0,86,0.00,,,0.00,meteohub,2013-02-15 14:56:00,
2013-02-15 07:57:00,17.1,13.6,30.48,WSW,252,3.0,5.0,86,0.00,,,0.00,meteohub,2013-02-15 14:57:00,
2013-02-15 07:58:00,17.2,13.8,30.48,WSW,252,3.0,5.0,86,0.00,,,0.00,meteohub,2013-02-15 14:58:00,
2013-02-15 08:01:00,17.4,14.2,30.48,WSW,252,2.0,6.0,87,0.00,,,0.00,meteohub,2013-02-15 15:01:00,
2013-02-15 08:03:00,17.6,14.2,30.48,WSW,252,2.0,6.0,86,0.00,,,0.00,meteohub,2013-02-15 15:03:00,
2013-02-15 08:04:00,17.8,14.4,30.48,WSW,252,4.0,6.0,86,0.00,,,0.00,meteohub,2013-02-15 15:04:00,
2013-02-15 08:06:00,17.8,14.4,30.49,WSW,252,3.0,6.0,86,0.00,,,0.00,meteohub,2013-02-15 15:06:00,
2013-02-15 08:08:00,18.0,14.7,30.49,WSW,252,3.0,6.0,87,0.00,,,0.00,meteohub,2013-02-15 15:08:00,
2013-02-15 08:09:00,18.1,14.9,30.49,WSW,252,2.0,6.0,87,0.00,,,0.00,meteohub,2013-02-15 15:09:00,
2013-02-15 08:11:00,18.3,15.1,30.49,WSW,252,2.0,6.0,87,0.00,,,0.00,meteohub,2013-02-15 15:11:00,
2013-02-15 08:14:00,18.7,15.4,30.49,WSW,252,1.0,6.0,87,0.00,,,0.00,meteohub,2013-02-15 15:14:00,
2013-02-15 08:15:00,18.7,15.4,30.49,WSW,252,2.0,6.0,87,0.00,,,0.00,meteohub,2013-02-15 15:15:00,
2013-02-15 08:16:00,18.9,15.6,30.49,WSW,252,1.0,6.0,87,0.00,,,0.00,meteohub,2013-02-15 15:16:00,
2013-02-15 08:17:00,18.9,15.6,30.49,WSW,252,2.0,6.0,87,0.00,,,0.00,meteohub,2013-02-15 15:17:00,
2013-02-15 08:20:00,19.2,15.8,30.49,WSW,252,2.0,6.0,86,0.00,,,0.00,meteohub,2013-02-15 15:20:00,
2013-02-15 08:21:00,19.2,16.0,30.49,WSW,252,1.0,5.0,87,0.00,,,0.00,meteohub,2013-02-15 15:21:00,
2013-02-15 08:23:00,19.6,16.2,30.49,WSW,252,3.0,5.0,86,0.00,,,0.00,meteohub,2013-02-15 15:23:00,
2013-02-15 08:25:00,19.8,16.3,30.49,WSW,252,4.0,5.0,86,0.00,,,0.00,meteohub,2013-02-15 15:25:00,
2013-02-15 08:26:00,19.8,16.3,30.49,WSW,252,2.0,4.0,86,0.00,,,0.00,meteohub,2013-02-15 15:26:00,
2013-02-15 08:27:00,19.9,16.5,30.49,WSW,252,2.0,4.0,86,0.00,,,0.00,meteohub,2013-02-15 15:27:00,
2013-02-15 08:32:00,20.3,16.7,30.49,WSW,252,1.0,5.0,86,0.00,,,0.00,meteohub,2013-02-15 15:32:00,
2013-02-15 08:34:00,20.7,17.1,30.49,WSW,252,0.0,5.0,86,0.00,,,0.00,meteohub,2013-02-15 15:34:00,
2013-02-15 08:35:00,20.7,17.1,30.49,WSW,252,0.0,5.0,86,0.00,,,0.00,meteohub,2013-02-15 15:35:00,
2013-02-15 08:37:00,20.8,17.2,30.49,WSW,252,0.0,5.0,86,0.00,,,0.00,meteohub,2013-02-15 15:37:00,
2013-02-15 08:39:00,20.8,17.1,30.49,WSW,252,0.0,5.0,85,0.00,,,0.00,meteohub,2013-02-15 15:39:00,
2013-02-15 08:40:00,21.0,17.4,30.49,WSW,252,0.0,5.0,86,0.00,,,0.00,meteohub,2013-02-15 15:40:00,
2013-02-15 08:42:00,21.0,17.4,30.49,WSW,252,0.0,5.0,86,0.00,,,0.00,meteohub,2013-02-15 15:42:00,
2013-02-15 08:44:00,21.4,17.6,30.49,WSW,252,0.0,5.0,85,0.00,,,0.00,meteohub,2013-02-15 15:44:00,
2013-02-15 08:47:00,21.4,17.6,30.49,WSW,252,0.0,2.0,85,0.00,,,0.00,meteohub,2013-02-15 15:47:00,
2013-02-15 08:49:00,21.6,17.8,30.49,WSW,252,0.0,2.0,85,0.00,,,0.00,meteohub,2013-02-15 15:49:00,
2013-02-15 08:52:00,21.9,18.1,30.49,WSW,252,0.0,2.0,85,0.00,,,0.00,meteohub,2013-02-15 15:52:00,
2013-02-15 08:53:00,21.9,18.1,30.49,WSW,252,0.0,2.0,85,0.00,,,0.00,meteohub,2013-02-15 15:53:00,
2013-02-15 08:54:00,21.9,18.1,30.49,WSW,252,0.0,2.0,85,0.00,,,0.00,meteohub,2013-02-15 15:54:00,
2013-02-15 08:57:00,22.5,18.7,30.49,WSW,252,0.0,0.0,85,0.00,,,0.00,meteohub,2013-02-15 15:57:00,
2013-02-15 08:58:00,22.5,18.7,30.49,WSW,252,0.0,0.0,85,0.00,,,0.00,meteohub,2013-02-15 15:58:00,
2013-02-15 09:01:00,23.4,19.8,30.49,WSW,252,0.0,0.0,86,0.00,,,0.00,meteohub,2013-02-15 16:01:00,
2013-02-15 09:02:00,23.4,19.8,30.49,WSW,252,0.0,0.0,86,0.00,,,0.00,meteohub,2013-02-15 16:02:00,
2013-02-15 09:03:00,23.5,19.8,30.49,WSW,252,0.0,0.0,85,0.00,,,0.00,meteohub,2013-02-15 16:03:00,
2013-02-15 09:06:00,23.9,20.1,30.49,WSW,252,0.0,1.0,85,0.00,,,0.00,meteohub,2013-02-15 16:06:00,
2013-02-15 09:08:00,24.3,20.5,30.48,WSW,252,0.0,1.0,85,0.00,,,0.00,meteohub,2013-02-15 16:08:00,
2013-02-15 09:09:00,24.3,20.5,30.49,WSW,252,2.0,2.0,85,0.00,,,0.00,meteohub,2013-02-15 16:09:00,
2013-02-15 09:10:00,24.4,20.7,30.49,WSW,252,1.0,1.0,85,0.00,,,0.00,meteohub,2013-02-15 16:10:00,
2013-02-15 09:12:00,24.6,20.8,30.48,WSW,252,0.0,1.0,85,0.00,,,0.00,meteohub,2013-02-15 16:12:00,
2013-02-15 09:14:00,25.2,21.4,30.48,WSW,252,1.0,1.0,85,0.00,,,0.00,meteohub,2013-02-15 16:14:00,
2013-02-15 09:17:00,25.5,21.6,30.48,WSW,252,2.0,3.0,85,0.00,,,0.00,meteohub,2013-02-15 16:17:00,
2013-02-15 09:18:00,25.9,21.7,30.48,WSW,252,3.0,3.0,84,0.00,,,0.00,meteohub,2013-02-15 16:18:00,
2013-02-15 09:19:00,26.1,21.9,30.48,WSW,252,3.0,3.0,84,0.00,,,0.00,meteohub,2013-02-15 16:19:00,
2013-02-15 09:23:00,26.6,22.1,30.49,WSW,252,0.0,3.0,83,0.00,,,0.00,meteohub,2013-02-15 16:23:00,
2013-02-15 09:24:00,26.8,22.3,30.49,WSW,252,1.0,3.0,83,0.00,,,0.00,meteohub,2013-02-15 16:24:00,
2013-02-15 09:25:00,27.0,22.3,30.49,WSW,252,4.0,4.0,82,0.00,,,0.00,meteohub,2013-02-15 16:25:00,
2013-02-15 09:28:00,27.3,22.3,30.48,WSW,252,3.0,3.0,81,0.00,,,0.00,meteohub,2013-02-15 16:28:00,
2013-02-15 09:29:00,27.3,21.9,30.48,WSW,252,0.0,3.0,80,0.00,,,0.00,meteohub,2013-02-15 16:29:00,
2013-02-15 09:30:00,27.5,22.1,30.48,WSW,252,0.0,3.0,80,0.00,,,0.00,meteohub,2013-02-15 16:30:00,
2013-02-15 09:32:00,27.7,22.1,30.48,WSW,252,0.0,5.0,79,0.00,,,0.00,meteohub,2013-02-15 16:32:00,
2013-02-15 09:34:00,28.0,22.1,30.49,WSW,252,2.0,5.0,78,0.00,,,0.00,meteohub,2013-02-15 16:34:00,
2013-02-15 09:35:00,28.2,21.9,30.49,WSW,252,0.0,5.0,77,0.00,,,0.00,meteohub,2013-02-15 16:35:00,
2013-02-15 09:37:00,28.2,21.6,30.49,WSW,252,0.0,5.0,76,0.00,,,0.00,meteohub,2013-02-15 16:37:00,
2013-02-15 09:40:00,28.8,21.9,30.48,WSW,252,2.0,4.0,75,0.01,,,0.01,meteohub,2013-02-15 16:40:00,
2013-02-15 09:42:00,28.9,21.7,30.49,WSW,252,0.0,4.0,74,0.01,,,0.01,meteohub,2013-02-15 16:42:00,
2013-02-15 09:43:00,29.1,21.9,30.49,WSW,252,2.0,4.0,74,0.01,,,0.01,meteohub,2013-02-15 16:43:00,
2013-02-15 09:45:00,29.5,21.9,30.49,WSW,252,0.0,4.0,73,0.01,,,0.01,meteohub,2013-02-15 16:45:00,
2013-02-15 09:49:00,29.8,21.2,30.49,WSW,252,1.0,4.0,70,0.01,,,0.01,meteohub,2013-02-15 16:49:00,
2013-02-15 09:50:00,29.8,21.2,30.49,WSW,252,1.0,4.0,70,0.01,,,0.01,meteohub,2013-02-15 16:50:00,
2013-02-15 09:52:00,30.4,21.7,30.49,WSW,252,2.0,4.0,70,0.01,,,0.01,meteohub,2013-02-15 16:52:00,
2013-02-15 09:54:00,30.4,21.4,30.49,WSW,252,2.0,4.0,69,0.01,,,0.01,meteohub,2013-02-15 16:54:00,
2013-02-15 09:55:00,30.4,21.0,30.49,WSW,252,3.0,4.0,68,0.01,,,0.01,meteohub,2013-02-15 16:55:00,
2013-02-15 09:57:00,30.6,21.2,30.49,WSW,252,3.0,5.0,68,0.01,,,0.01,meteohub,2013-02-15 16:57:00,
2013-02-15 09:58:00,30.6,20.8,30.49,WSW,252,3.0,5.0,67,0.01,,,0.01,meteohub,2013-02-15 16:58:00,
2013-02-15 10:02:00,30.7,20.7,30.49,WSW,252,0.0,5.0,66,0.01,,,0.01,meteohub,2013-02-15 17:02:00,
2013-02-15 10:03:00,30.7,20.7,30.49,WSW,252,0.0,5.0,66,0.01,,,0.01,meteohub,2013-02-15 17:03:00,
2013-02-15 10:04:00,30.9,20.8,30.49,WSW,252,2.0,5.0,66,0.01,,,0.01,meteohub,2013-02-15 17:04:00,
2013-02-15 10:05:00,31.1,21.0,30.49,WSW,252,1.0,5.0,66,0.01,,,0.01,meteohub,2013-02-15 17:05:00,
2013-02-15 10:07:00,31.3,20.8,30.49,WSW,252,1.0,5.0,65,0.01,,,0.01,meteohub,2013-02-15 17:07:00,
2013-02-15 10:08:00,31.5,21.0,30.49,WSW,252,1.0,5.0,65,0.01,,,0.01,meteohub,2013-02-15 17:08:00,
2013-02-15 10:10:00,31.5,21.4,30.49,WSW,252,0.0,5.0,66,0.01,,,0.01,meteohub,2013-02-15 17:10:00,
2013-02-15 10:12:00,31.5,21.0,30.49,WSW,252,1.0,4.0,65,0.01,,,0.01,meteohub,2013-02-15 17:12:00,
2013-02-15 10:15:00,31.6,20.8,30.48,South,174,1.0,4.0,64,0.01,,,0.01,meteohub,2013-02-15 17:15:00,
2013-02-15 10:17:00,31.6,20.1,30.48,SSW,211,1.0,4.0,62,0.01,,,0.01,meteohub,2013-02-15 17:17:00,
2013-02-15 10:18:00,31.6,19.8,30.48,SSW,211,1.0,4.0,61,0.01,,,0.01,meteohub,2013-02-15 17:18:00,
2013-02-15 10:20:00,31.6,19.4,30.48,SSW,211,1.0,4.0,60,0.01,,,0.01,meteohub,2013-02-15 17:20:00,
2013-02-15 10:21:00,31.8,19.6,30.48,SSW,196,3.0,6.0,60,0.01,,,0.01,meteohub,2013-02-15 17:21:00,
2013-02-15 10:23:00,31.8,19.0,30.48,SSW,197,2.0,6.0,59,0.01,,,0.01,meteohub,2013-02-15 17:23:00,
2013-02-15 10:26:00,32.2,19.0,30.48,SSW,198,2.0,6.0,58,0.01,,,0.01,meteohub,2013-02-15 17:26:00,
2013-02-15 10:29:00,32.2,19.0,30.48,South,176,2.0,6.0,58,0.01,,,0.01,meteohub,2013-02-15 17:29:00,
2013-02-15 10:30:00,32.2,19.0,30.48,SSE,161,4.0,6.0,58,0.01,,,0.01,meteohub,2013-02-15 17:30:00,
2013-02-15 10:31:00,32.2,19.0,30.48,South,171,2.0,6.0,58,0.02,,,0.02,meteohub,2013-02-15 17:31:00,
2013-02-15 10:32:00,32.2,19.0,30.48,South,169,2.0,6.0,58,0.02,,,0.02,meteohub,2013-02-15 17:32:00,
2013-02-15 10:34:00,32.0,18.9,30.48,South,169,0.0,6.0,58,0.02,,,0.02,meteohub,2013-02-15 17:34:00,
2013-02-15 10:36:00,32.0,19.2,30.48,SSE,164,1.0,6.0,59,0.01,,,0.02,meteohub,2013-02-15 17:36:00,
2013-02-15 10:37:00,31.8,19.0,30.48,SSE,164,1.0,6.0,59,0.01,,,0.02,meteohub,2013-02-15 17:37:00,
2013-02-15 10:40:00,32.2,19.0,30.48,South,186,0.0,6.0,58,0.01,,,0.02,meteohub,2013-02-15 17:40:00,
2013-02-15 10:43:00,32.5,19.0,30.48,SSE,158,0.0,6.0,57,0.01,,,0.02,meteohub,2013-02-15 17:43:00,
2013-02-15 10:44:00,32.7,19.6,30.48,SSE,150,1.0,6.0,58,0.01,,,0.02,meteohub,2013-02-15 17:44:00,
2013-02-15 10:45:00,32.7,19.2,30.48,SSE,150,1.0,6.0,57,0.01,,,0.02,meteohub,2013-02-15 17:45:00,
2013-02-15 10:46:00,32.7,18.7,30.48,SSE,164,5.0,5.0,56,0.01,,,0.02,meteohub,2013-02-15 17:46:00,
2013-02-15 10:49:00,33.1,18.7,30.48,South,171,0.0,5.0,55,0.01,,,0.02,meteohub,2013-02-15 17:49:00,
2013-02-15 10:51:00,33.4,19.4,30.48,SW,232,1.0,7.0,56,0.02,,,0.03,meteohub,2013-02-15 17:51:00,
2013-02-15 10:52:00,33.4,19.8,30.48,SW,232,0.0,7.0,57,0.02,,,0.03,meteohub,2013-02-15 17:52:00,
2013-02-15 10:54:00,33.6,19.2,30.48,SE,146,4.0,7.0,55,0.02,,,0.03,meteohub,2013-02-15 17:54:00,
2013-02-15 10:57:00,33.8,18.5,30.48,South,171,4.0,7.0,53,0.02,,,0.03,meteohub,2013-02-15 17:57:00,
2013-02-15 10:59:00,33.8,18.5,30.48,SSE,159,1.0,7.0,53,0.02,,,0.03,meteohub,2013-02-15 17:59:00,
2013-02-15 11:00:00,33.8,18.5,30.48,SSE,159,0.0,7.0,53,0.02,,,0.03,meteohub,2013-02-15 18:00:00,
2013-02-15 11:02:00,34.0,18.7,30.48,SSE,159,0.0,7.0,53,0.02,,,0.03,meteohub,2013-02-15 18:02:00,
2013-02-15 11:05:00,34.3,19.4,30.48,South,175,0.0,7.0,54,0.02,,,0.03,meteohub,2013-02-15 18:05:00,
2013-02-15 11:06:00,34.5,19.6,30.48,South,175,0.0,7.0,54,0.02,,,0.03,meteohub,2013-02-15 18:06:00,
2013-02-15 11:07:00,34.5,19.6,30.48,SW,217,2.0,7.0,54,0.02,,,0.03,meteohub,2013-02-15 18:07:00,
2013-02-15 11:10:00,35.1,19.2,30.47,SW,224,2.0,7.0,52,0.02,,,0.03,meteohub,2013-02-15 18:10:00,
2013-02-15 11:11:00,35.1,19.2,30.47,SW,224,0.0,7.0,52,0.02,,,0.03,meteohub,2013-02-15 18:11:00,
2013-02-15 11:13:00,35.2,19.8,30.47,SW,224,0.0,7.0,53,0.02,,,0.03,meteohub,2013-02-15 18:13:00,
2013-02-15 11:16:00,35.4,19.9,30.47,SW,224,0.0,5.0,53,0.02,,,0.03,meteohub,2013-02-15 18:16:00,
2013-02-15 11:17:00,35.4,19.6,30.47,SW,224,3.0,5.0,52,0.02,,,0.03,meteohub,2013-02-15 18:17:00,
2013-02-15 11:18:00,35.6,19.8,30.47,SW,224,0.0,5.0,52,0.02,,,0.03,meteohub,2013-02-15 18:18:00,
2013-02-15 11:21:00,35.8,19.4,30.47,SSE,155,2.0,5.0,51,0.02,,,0.03,meteohub,2013-02-15 18:21:00,
2013-02-15 11:22:00,36.0,19.6,30.47,SSE,155,1.0,5.0,51,0.02,,,0.03,meteohub,2013-02-15 18:22:00,
2013-02-15 11:23:00,35.8,19.4,30.47,ENE,61,1.0,5.0,51,0.02,,,0.03,meteohub,2013-02-15 18:23:00,
2013-02-15 11:26:00,35.8,19.9,30.47,ESE,115,1.0,5.0,52,0.01,,,0.03,meteohub,2013-02-15 18:26:00,
2013-02-15 11:27:00,35.8,20.3,30.47,ESE,115,0.0,5.0,53,0.01,,,0.03,meteohub,2013-02-15 18:27:00,
2013-02-15 11:30:00,35.8,20.3,30.47,SSE,152,4.0,5.0,53,0.01,,,0.03,meteohub,2013-02-15 18:30:00,
2013-02-15 11:31:00,35.6,19.8,30.47,SSE,160,2.0,5.0,52,0.01,,,0.03,meteohub,2013-02-15 18:31:00,
2013-02-15 11:32:00,35.4,19.6,30.47,SSE,160,2.0,5.0,52,0.01,,,0.03,meteohub,2013-02-15 18:32:00,
2013-02-15 11:36:00,34.5,18.7,30.47,SE,136,4.0,6.0,52,0.01,,,0.03,meteohub,2013-02-15 18:36:00,
2013-02-15 11:37:00,34.5,18.7,30.47,SSE,155,2.0,6.0,52,0.01,,,0.03,meteohub,2013-02-15 18:37:00,
2013-02-15 11:38:00,34.3,18.5,30.47,South,175,1.0,6.0,52,0.01,,,0.03,meteohub,2013-02-15 18:38:00,
2013-02-15 11:42:00,34.2,18.9,30.46,South,175,0.0,6.0,53,0.01,,,0.03,meteohub,2013-02-15 18:42:00,
2013-02-15 11:44:00,34.0,18.7,30.46,South,175,0.0,6.0,53,0.01,,,0.03,meteohub,2013-02-15 18:44:00,
2013-02-15 11:48:00,33.6,18.3,30.47,ESE,111,5.0,6.0,53,0.01,,,0.03,meteohub,2013-02-15 18:48:00,
2013-02-15 11:49:00,33.6,18.3,30.46,ESE,105,4.0,6.0,53,0.01,,,0.03,meteohub,2013-02-15 18:49:00,
2013-02-15 11:52:00,33.4,18.1,30.47,ESE,103,5.0,7.0,53,0.00,,,0.03,meteohub,2013-02-15 18:52:00,
2013-02-15 11:54:00,33.3,18.0,30.47,ESE,103,4.0,7.0,53,0.00,,,0.03,meteohub,2013-02-15 18:54:00,
2013-02-15 11:56:00,33.3,17.6,30.47,ESE,105,4.0,7.0,52,0.00,,,0.03,meteohub,2013-02-15 18:56:00,
2013-02-15 11:58:00,33.3,18.0,30.46,ESE,105,5.0,7.0,53,0.00,,,0.03,meteohub,2013-02-15 18:58:00,
2013-02-15 12:00:00,33.3,18.0,30.46,ESE,105,1.0,7.0,53,0.00,,,0.03,meteohub,2013-02-15 19:00:00,
2013-02-15 12:01:00,33.3,18.0,30.47,ESE,105,4.0,7.0,53,0.00,,,0.03,meteohub,2013-02-15 19:01:00,
2013-02-15 12:02:00,33.3,18.0,30.47,East,101,5.0,7.0,53,0.00,,,0.03,meteohub,2013-02-15 19:02:00,
2013-02-15 12:04:00,33.1,17.4,30.46,ESE,106,6.0,7.0,52,0.00,,,0.03,meteohub,2013-02-15 19:04:00,
2013-02-15 12:06:00,33.1,17.4,30.46,ESE,118,2.0,6.0,52,0.00,,,0.03,meteohub,2013-02-15 19:06:00,
2013-02-15 12:07:00,33.3,17.1,30.46,ESE,118,1.0,6.0,51,0.00,,,0.03,meteohub,2013-02-15 19:07:00,
2013-02-15 12:08:00,33.3,17.1,30.46,ESE,117,2.0,6.0,51,0.00,,,0.03,meteohub,2013-02-15 19:08:00,
2013-02-15 12:09:00,33.3,17.1,30.46,ESE,113,2.0,6.0,51,0.00,,,0.03,meteohub,2013-02-15 19:09:00,
2013-02-15 12:12:00,33.3,17.1,30.46,ESE,113,1.0,8.0,51,0.00,,,0.03,meteohub,2013-02-15 19:12:00,
2013-02-15 12:13:00,33.3,17.1,30.46,ESE,113,0.0,8.0,51,0.00,,,0.03,meteohub,2013-02-15 19:13:00,
2013-02-15 12:15:00,33.3,17.1,30.47,ESE,113,2.0,8.0,51,0.00,,,0.03,meteohub,2013-02-15 19:15:00,
2013-02-15 12:16:00,33.4,17.2,30.47,ESE,120,2.0,8.0,51,0.00,,,0.03,meteohub,2013-02-15 19:16:00,
2013-02-15 12:17:00,33.4,17.8,30.46,ESE,102,5.0,8.0,52,0.00,,,0.03,meteohub,2013-02-15 19:17:00,
2013-02-15 12:20:00,33.6,17.4,30.46,SE,126,4.0,8.0,51,0.00,,,0.03,meteohub,2013-02-15 19:20:00,
2013-02-15 12:22:00,33.6,17.4,30.46,ESE,113,4.0,6.0,51,0.00,,,0.03,meteohub,2013-02-15 19:22:00,
2013-02-15 12:23:00,33.6,17.8,30.46,ESE,109,6.0,6.0,52,0.00,,,0.03,meteohub,2013-02-15 19:23:00,
2013-02-15 12:24:00,33.8,18.5,30.46,ESE,115,4.0,6.0,53,0.00,,,0.03,meteohub,2013-02-15 19:24:00,
2013-02-15 12:26:00,34.0,18.7,30.46,East,96,5.0,8.0,53,0.00,,,0.03,meteohub,2013-02-15 19:26:00,
2013-02-15 12:27:00,34.2,18.3,30.46,East,86,4.0,8.0,52,0.00,,,0.03,meteohub,2013-02-15 19:27:00,
2013-02-15 12:30:00,34.3,18.5,30.46,East,88,1.0,8.0,52,0.00,,,0.03,meteohub,2013-02-15 19:30:00,
2013-02-15 12:31:00,34.3,19.0,30.46,East,96,6.0,8.0,53,0.00,,,0.03,meteohub,2013-02-15 19:31:00,
2013-02-15 12:32:00,34.5,18.3,30.46,ESE,103,6.0,8.0,51,0.00,,,0.03,meteohub,2013-02-15 19:32:00,
2013-02-15 12:35:00,34.5,17.2,30.46,ENE,66,4.0,8.0,49,0.00,,,0.03,meteohub,2013-02-15 19:35:00,
2013-02-15 12:37:00,34.5,16.9,30.46,ENE,59,4.0,8.0,48,0.00,,,0.03,meteohub,2013-02-15 19:37:00,
2013-02-15 12:38:00,34.7,17.1,30.46,ESE,104,6.0,8.0,48,0.00,,,0.03,meteohub,2013-02-15 19:38:00,
2013-02-15 12:41:00,34.9,17.6,30.46,ESE,117,11.0,11.0,49,0.00,,,0.03,meteohub,2013-02-15 19:41:00,
2013-02-15 12:42:00,34.9,17.6,30.46,East,89,7.0,11.0,49,0.00,,,0.03,meteohub,2013-02-15 19:42:00,
2013-02-15 12:45:00,34.9,17.6,30.47,ESE,109,7.0,11.0,49,0.00,,,0.03,meteohub,2013-02-15 19:45:00,
2013-02-15 12:47:00,34.7,17.1,30.47,South,172,4.0,12.0,48,0.00,,,0.03,meteohub,2013-02-15 19:47:00,
2013-02-15 12:48:00,34.5,16.3,30.46,ESE,118,6.0,12.0,47,0.00,,,0.03,meteohub,2013-02-15 19:48:00,
2013-02-15 12:50:00,34.5,17.2,30.46,ESE,106,4.0,12.0,49,0.00,,,0.03,meteohub,2013-02-15 19:50:00,
2013-02-15 12:55:00,34.7,17.1,30.47,SE,138,6.0,12.0,48,0.00,,,0.03,meteohub,2013-02-15 19:55:00,
2013-02-15 12:56:00,34.7,17.1,30.46,South,184,4.0,12.0,48,0.00,,,0.03,meteohub,2013-02-15 19:56:00,
2013-02-15 12:57:00,34.7,17.1,30.46,South,187,3.0,12.0,48,0.00,,,0.03,meteohub,2013-02-15 19:57:00,
2013-02-15 12:59:00,34.9,17.6,30.46,SE,138,4.0,12.0,49,0.00,,,0.03,meteohub,2013-02-15 19:59:00,
2013-02-15 13:01:00,35.1,17.4,30.46,ESE,105,4.0,12.0,48,0.00,,,0.03,meteohub,2013-02-15 20:01:00,
2013-02-15 13:02:00,35.1,16.9,30.46,ENE,70,3.0,12.0,47,0.00,,,0.03,meteohub,2013-02-15 20:02:00,
2013-02-15 13:05:00,35.1,16.9,30.46,South,184,0.0,12.0,47,0.00,,,0.03,meteohub,2013-02-15 20:05:00,
2013-02-15 13:07:00,35.2,17.6,30.46,South,183,2.0,12.0,48,0.00,,,0.03,meteohub,2013-02-15 20:07:00,
2013-02-15 13:10:00,35.2,16.5,30.46,South,184,0.0,12.0,46,0.00,,,0.03,meteohub,2013-02-15 20:10:00,
2013-02-15 13:11:00,35.2,17.1,30.46,SE,130,1.0,8.0,47,0.00,,,0.03,meteohub,2013-02-15 20:11:00,
2013-02-15 13:13:00,35.4,17.2,30.46,SE,129,5.0,8.0,47,0.00,,,0.03,meteohub,2013-02-15 20:13:00,
2013-02-15 13:16:00,35.4,17.2,30.46,SE,132,4.0,5.0,47,0.00,,,0.03,meteohub,2013-02-15 20:16:00,
2013-02-15 13:17:00,35.6,16.9,30.46,SE,133,0.0,5.0,46,0.00,,,0.03,meteohub,2013-02-15 20:17:00,
2013-02-15 13:19:00,35.8,17.1,30.46,SSE,168,5.0,5.0,46,0.00,,,0.03,meteohub,2013-02-15 20:19:00,
2013-02-15 13:22:00,35.8,16.5,30.46,SSE,165,4.0,8.0,45,0.00,,,0.03,meteohub,2013-02-15 20:22:00,
2013-02-15 13:26:00,36.1,16.3,30.45,SSE,164,5.0,8.0,44,0.00,,,0.03,meteohub,2013-02-15 20:26:00,
2013-02-15 13:27:00,36.1,16.3,30.45,South,180,3.0,8.0,44,0.00,,,0.03,meteohub,2013-02-15 20:27:00,
2013-02-15 13:31:00,36.9,16.5,30.45,SW,228,4.0,8.0,43,0.00,,,0.03,meteohub,2013-02-15 20:31:00,
2013-02-15 13:32:00,36.9,16.5,30.45,SW,228,2.0,8.0,43,0.00,,,0.03,meteohub,2013-02-15 20:32:00,
2013-02-15 13:34:00,37.2,16.2,30.45,WSW,257,1.0,8.0,42,0.00,,,0.03,meteohub,2013-02-15 20:34:00,
2013-02-15 13:37:00,37.8,17.2,30.45,SSW,207,3.0,8.0,43,0.00,,,0.03,meteohub,2013-02-15 20:37:00,
2013-02-15 13:38:00,37.9,16.3,30.45,SSW,208,0.0,8.0,41,0.00,,,0.03,meteohub,2013-02-15 20:38:00,
2013-02-15 13:39:00,38.1,16.5,30.45,SSW,208,0.0,8.0,41,0.00,,,0.03,meteohub,2013-02-15 20:39:00,
2013-02-15 13:40:00,38.3,16.7,30.45,SSW,208,0.0,8.0,41,0.00,,,0.03,meteohub,2013-02-15 20:40:00,
2013-02-15 13:42:00,38.7,17.1,30.45,NW,315,3.0,8.0,41,0.00,,,0.03,meteohub,2013-02-15 20:42:00,
2013-02-15 13:44:00,38.8,18.9,30.45,NW,315,0.0,8.0,44,0.00,,,0.03,meteohub,2013-02-15 20:44:00,
2013-02-15 13:45:00,39.0,18.5,30.45,East,92,0.0,8.0,43,0.00,,,0.03,meteohub,2013-02-15 20:45:00,
2013-02-15 13:47:00,39.4,17.1,30.45,NE,56,0.0,7.0,40,0.00,,,0.03,meteohub,2013-02-15 20:47:00,
2013-02-15 13:49:00,39.4,15.8,30.45,SE,132,5.0,7.0,38,0.00,,,0.03,meteohub,2013-02-15 20:49:00,
2013-02-15 13:50:00,39.4,15.3,30.45,SE,128,4.0,7.0,37,0.00,,,0.03,meteohub,2013-02-15 20:50:00,
2013-02-15 13:52:00,39.4,14.7,30.45,NNE,20,1.0,10.0,36,0.00,,,0.03,meteohub,2013-02-15 20:52:00,
2013-02-15 13:53:00,39.4,14.7,30.45,NNE,20,0.0,10.0,36,0.00,,,0.03,meteohub,2013-02-15 20:53:00,
2013-02-15 13:54:00,39.2,14.5,30.45,NNE,20,0.0,10.0,36,0.00,,,0.03,meteohub,2013-02-15 20:54:00,
2013-02-15 13:56:00,39.0,14.9,30.45,NNE,20,0.0,10.0,37,0.00,,,0.03,meteohub,2013-02-15 20:56:00,
2013-02-15 13:59:00,39.0,14.9,30.45,SSE,158,0.0,10.0,37,0.00,,,0.03,meteohub,2013-02-15 20:59:00,
2013-02-15 14:00:00,39.2,15.1,30.45,SSE,160,2.0,10.0,37,0.00,,,0.03,meteohub,2013-02-15 21:00:00,
2013-02-15 14:02:00,39.2,15.8,30.45,SSE,160,1.0,10.0,38,0.00,,,0.03,meteohub,2013-02-15 21:02:00,
2013-02-15 14:05:00,39.4,15.8,30.45,SE,127,7.0,10.0,38,0.00,,,0.03,meteohub,2013-02-15 21:05:00,
2013-02-15 14:06:00,39.4,15.8,30.45,South,171,6.0,8.0,38,0.00,,,0.03,meteohub,2013-02-15 21:06:00,
2013-02-15 14:08:00,39.6,15.4,30.45,South,188,6.0,8.0,37,0.00,,,0.03,meteohub,2013-02-15 21:08:00,
2013-02-15 14:10:00,39.6,14.7,30.45,South,169,5.0,8.0,36,0.00,,,0.03,meteohub,2013-02-15 21:10:00,
2013-02-15 14:12:00,39.6,16.0,30.45,SSW,201,5.0,8.0,38,0.00,,,0.03,meteohub,2013-02-15 21:12:00,
2013-02-15 14:15:00,39.7,16.9,30.45,ESE,110,2.0,8.0,39,0.00,,,0.03,meteohub,2013-02-15 21:15:00,
2013-02-15 14:18:00,39.7,15.6,30.45,SE,126,5.0,9.0,37,0.00,,,0.03,meteohub,2013-02-15 21:18:00,
2013-02-15 14:20:00,39.6,14.7,30.45,ESE,113,6.0,9.0,36,0.00,,,0.03,meteohub,2013-02-15 21:20:00,
2013-02-15 14:23:00,39.4,14.0,30.45,South,188,0.0,11.0,35,0.00,,,0.03,meteohub,2013-02-15 21:23:00,
2013-02-15 14:26:00,39.2,13.8,30.45,SSE,161,0.0,11.0,35,0.00,,,0.03,meteohub,2013-02-15 21:26:00,
2013-02-15 14:29:00,39.4,15.3,30.45,SW,217,2.0,11.0,37,0.00,,,0.03,meteohub,2013-02-15 21:29:00,
2013-02-15 14:30:00,39.4,15.3,30.45,South,175,6.0,11.0,37,0.00,,,0.03,meteohub,2013-02-15 21:30:00,
2013-02-15 14:31:00,39.2,15.1,30.45,SE,129,6.0,11.0,37,0.00,,,0.03,meteohub,2013-02-15 21:31:00,
2013-02-15 14:35:00,39.2,14.5,30.45,SSW,204,6.0,13.0,36,0.00,,,0.03,meteohub,2013-02-15 21:35:00,
2013-02-15 14:36:00,39.2,14.5,30.45,SW,214,5.0,13.0,36,0.00,,,0.03,meteohub,2013-02-15 21:36:00,
2013-02-15 14:37:00,39.4,15.3,30.45,SW,220,7.0,13.0,37,0.00,,,0.03,meteohub,2013-02-15 21:37:00,
2013-02-15 14:38:00,39.4,15.3,30.45,SSE,151,5.0,13.0,37,0.00,,,0.03,meteohub,2013-02-15 21:38:00,
2013-02-15 14:42:00,39.7,14.4,30.45,SSW,208,7.0,13.0,35,0.00,,,0.03,meteohub,2013-02-15 21:42:00,
2013-02-15 14:43:00,39.7,15.6,30.45,SW,229,3.0,13.0,37,0.00,,,0.03,meteohub,2013-02-15 21:43:00,
2013-02-15 14:44:00,39.7,14.4,30.45,SW,226,4.0,13.0,35,0.00,,,0.03,meteohub,2013-02-15 21:44:00,
2013-02-15 14:49:00,40.5,14.9,30.45,SSW,192,8.0,13.0,35,0.00,,,0.03,meteohub,2013-02-15 21:49:00,
2013-02-15 14:50:00,40.5,14.9,30.45,South,182,6.0,13.0,35,0.00,,,0.03,meteohub,2013-02-15 21:50:00,
2013-02-15 14:51:00,40.6,15.8,30.45,South,173,5.0,8.0,36,0.00,,,0.03,meteohub,2013-02-15 21:51:00,
2013-02-15 14:55:00,40.8,15.3,30.45,SW,219,4.0,8.0,35,0.00,,,0.03,meteohub,2013-02-15 21:55:00,
2013-02-15 14:56:00,41.0,15.4,30.45,South,179,5.0,9.0,35,0.00,,,0.03,meteohub,2013-02-15 21:56:00,
2013-02-15 14:57:00,41.2,15.6,30.45,SSE,165,2.0,9.0,35,0.00,,,0.03,meteohub,2013-02-15 21:57:00,
2013-02-15 15:01:00,41.4,16.3,30.45,WSW,239,2.0,9.0,36,0.00,,,0.03,meteohub,2013-02-15 22:01:00,
2013-02-15 15:03:00,41.4,15.8,30.45,NW,304,3.0,9.0,35,0.00,,,0.03,meteohub,2013-02-15 22:03:00,
2013-02-15 15:06:00,41.4,16.3,30.45,South,191,5.0,7.0,36,0.00,,,0.03,meteohub,2013-02-15 22:06:00,
2013-02-15 15:07:00,41.4,16.3,30.45,SW,217,7.0,7.0,36,0.00,,,0.03,meteohub,2013-02-15 22:07:00,
2013-02-15 15:09:00,41.4,15.1,30.45,WSW,245,4.0,7.0,34,0.00,,,0.03,meteohub,2013-02-15 22:09:00,
2013-02-15 15:12:00,41.5,16.0,30.45,WSW,237,2.0,8.0,35,0.00,,,0.03,meteohub,2013-02-15 22:12:00,
2013-02-15 15:13:00,41.5,15.3,30.45,SSW,212,8.0,8.0,34,0.00,,,0.03,meteohub,2013-02-15 22:13:00,
2013-02-15 15:14:00,41.5,15.3,30.45,WSW,242,10.0,10.0,34,0.00,,,0.03,meteohub,2013-02-15 22:14:00,
2013-02-15 15:17:00,41.7,14.7,30.45,SSW,212,8.0,10.0,33,0.00,,,0.03,meteohub,2013-02-15 22:17:00,
2013-02-15 15:18:00,41.7,14.7,30.44,SSW,194,3.0,10.0,33,0.00,,,0.03,meteohub,2013-02-15 22:18:00,
2013-02-15 15:19:00,41.7,14.7,30.44,SSE,164,1.0,10.0,33,0.00,,,0.03,meteohub,2013-02-15 22:19:00,
2013-02-15 15:22:00,41.7,15.4,30.44,SW,230,6.0,10.0,34,0.00,,,0.03,meteohub,2013-02-15 22:22:00,
2013-02-15 15:23:00,41.9,15.6,30.44,WSW,251,2.0,10.0,34,0.00,,,0.03,meteohub,2013-02-15 22:23:00,
2013-02-15 15:25:00,42.1,15.8,30.44,SW,228,4.0,10.0,34,0.00,,,0.03,meteohub,2013-02-15 22:25:00,
2013-02-15 15:28:00,42.1,15.1,30.44,SW,217,2.0,10.0,33,0.00,,,0.03,meteohub,2013-02-15 22:28:00,
2013-02-15 15:29:00,42.1,15.1,30.44,WSW,244,3.0,10.0,33,0.00,,,0.03,meteohub,2013-02-15 22:29:00,
2013-02-15 15:30:00,42.1,15.8,30.45,WSW,246,5.0,10.0,34,0.00,,,0.03,meteohub,2013-02-15 22:30:00,
2013-02-15 15:32:00,42.1,13.6,30.44,WNW,283,5.0,8.0,31,0.00,,,0.03,meteohub,2013-02-15 22:32:00,
2013-02-15 15:35:00,41.9,14.2,30.44,NW,304,5.0,8.0,32,0.00,,,0.03,meteohub,2013-02-15 22:35:00,
2013-02-15 15:37:00,41.7,14.0,30.44,NW,306,10.0,16.0,32,0.00,,,0.03,meteohub,2013-02-15 22:37:00,
2013-02-15 15:39:00,41.7,14.7,30.44,WNW,285,7.0,16.0,33,0.00,,,0.03,meteohub,2013-02-15 22:39:00,
2013-02-15 15:41:00,41.7,13.3,30.45,SW,223,7.0,16.0,31,0.00,,,0.03,meteohub,2013-02-15 22:41:00,
2013-02-15 15:43:00,41.7,14.7,30.45,West,271,10.0,16.0,33,0.00,,,0.03,meteohub,2013-02-15 22:43:00,
2013-02-15 15:44:00,41.7,14.7,30.44,SW,227,7.0,16.0,33,0.00,,,0.03,meteohub,2013-02-15 22:44:00,
2013-02-15 15:46:00,41.7,13.3,30.45,WSW,254,8.0,16.0,31,0.00,,,0.03,meteohub,2013-02-15 22:46:00,
2013-02-15 15:48:00,41.7,14.0,30.45,WSW,248,4.0,16.0,32,0.00,,,0.03,meteohub,2013-02-15 22:48:00,
2013-02-15 15:51:00,41.7,13.3,30.45,WSW,246,4.0,14.0,31,0.00,,,0.03,meteohub,2013-02-15 22:51:00,
2013-02-15 15:53:00,41.7,14.0,30.45,WNW,296,9.0,14.0,32,0.00,,,0.03,meteohub,2013-02-15 22:53:00,
2013-02-15 15:56:00,41.9,13.5,30.45,NW,304,5.0,14.0,31,0.00,,,0.03,meteohub,2013-02-15 22:56:00,
2013-02-15 15:57:00,41.9,13.5,30.45,NNW,327,5.0,14.0,31,0.00,,,0.03,meteohub,2013-02-15 22:57:00,
2013-02-15 16:00:00,41.7,13.3,30.44,NW,323,3.0,14.0,31,0.00,,,0.03,meteohub,2013-02-15 23:00:00,
2013-02-15 16:01:00,41.9,13.5,30.44,West,272,6.0,13.0,31,0.00,,,0.03,meteohub,2013-02-15 23:01:00,
2013-02-15 16:02:00,41.7,13.3,30.44,WSW,246,9.0,13.0,31,0.00,,,0.03,meteohub,2013-02-15 23:02:00,
2013-02-15 16:06:00,41.9,13.5,30.44,West,280,10.0,10.0,31,0.00,,,0.03,meteohub,2013-02-15 23:06:00,
2013-02-15 16:07:00,41.9,13.5,30.44,West,267,10.0,10.0,31,0.00,,,0.03,meteohub,2013-02-15 23:07:00,
2013-02-15 16:08:00,41.9,13.5,30.44,WNW,298,9.0,10.0,31,0.00,,,0.03,meteohub,2013-02-15 23:08:00,
2013-02-15 16:11:00,41.7,13.3,30.44,WNW,296,14.0,14.0,31,0.00,,,0.03,meteohub,2013-02-15 23:11:00,
2013-02-15 16:13:00,41.7,12.6,30.44,NNW,342,5.0,14.0,30,0.00,,,0.03,meteohub,2013-02-15 23:13:00,
2013-02-15 16:14:00,41.7,12.6,30.44,WNW,302,11.0,14.0,30,0.00,,,0.03,meteohub,2013-02-15 23:14:00,
2013-02-15 16:18:00,41.5,12.4,30.44,WNW,286,13.0,17.0,30,0.00,,,0.03,meteohub,2013-02-15 23:18:00,
2013-02-15 16:19:00,41.4,12.2,30.44,WNW,287,10.0,17.0,30,0.00,,,0.03,meteohub,2013-02-15 23:19:00,
2013-02-15 16:20:00,41.4,12.2,30.44,West,263,11.0,17.0,30,0.00,,,0.03,meteohub,2013-02-15 23:20:00,
2013-02-15 16:23:00,41.2,12.0,30.44,WNW,293,12.0,18.0,30,0.00,,,0.03,meteohub,2013-02-15 23:23:00,
2013-02-15 16:25:00,41.2,12.0,30.44,WNW,300,8.0,18.0,30,0.00,,,0.03,meteohub,2013-02-15 23:25:00,
2013-02-15 16:27:00,40.8,11.8,30.44,WNW,293,8.0,18.0,30,0.00,,,0.03,meteohub,2013-02-15 23:27:00,
2013-02-15 16:30:00,40.6,11.7,30.44,NNW,342,9.0,18.0,30,0.00,,,0.03,meteohub,2013-02-15 23:30:00,
2013-02-15 16:31:00,40.6,11.7,30.44,WNW,293,6.0,18.0,30,0.00,,,0.03,meteohub,2013-02-15 23:31:00,
2013-02-15 16:32:00,40.5,11.5,30.44,West,281,10.0,18.0,30,0.00,,,0.03,meteohub,2013-02-15 23:32:00,
2013-02-15 16:37:00,39.9,11.7,30.44,WNW,286,15.0,19.0,31,0.00,,,0.03,meteohub,2013-02-15 23:37:00,
2013-02-15 16:38:00,39.7,11.5,30.45,NW,314,9.0,19.0,31,0.00,,,0.03,meteohub,2013-02-15 23:38:00,
2013-02-15 16:42:00,39.6,11.5,30.44,NW,317,5.0,21.0,31,0.00,,,0.03,meteohub,2013-02-15 23:42:00,
2013-02-15 16:44:00,39.4,11.3,30.45,West,274,5.0,21.0,31,0.00,,,0.03,meteohub,2013-02-15 23:44:00,
2013-02-15 16:45:00,39.2,11.8,30.45,West,271,3.0,21.0,32,0.00,,,0.03,meteohub,2013-02-15 23:45:00,
2013-02-15 16:47:00,39.0,10.9,30.45,WNW,296,10.0,21.0,31,0.00,,,0.03,meteohub,2013-02-15 23:47:00,
2013-02-15 16:50:00,39.0,11.7,30.44,West,281,0.0,21.0,32,0.00,,,0.03,meteohub,2013-02-15 23:50:00,
2013-02-15 16:51:00,38.8,11.5,30.44,WNW,290,1.0,21.0,32,0.00,,,0.03,meteohub,2013-02-15 23:51:00,
2013-02-15 16:55:00,38.7,11.3,30.45,NW,321,6.0,21.0,32,0.00,,,0.03,meteohub,2013-02-15 23:55:00,
2013-02-15 16:56:00,38.5,11.1,30.45,WNW,299,5.0,14.0,32,0.00,,,0.03,meteohub,2013-02-15 23:56:00,
2013-02-15 16:57:00,38.5,11.1,30.45,West,259,6.0,14.0,32,0.00,,,0.03,meteohub,2013-02-15 23:57:00,
2013-02-15 17:00:00,38.1,11.5,30.45,SW,217,0.0,14.0,33,0.00,,,0.03,meteohub,2013-02-16 00:00:00,
2013-02-15 17:02:00,37.9,11.3,30.45,SW,217,0.0,14.0,33,0.00,,,0.03,meteohub,2013-02-16 00:02:00,
2013-02-15 17:03:00,37.8,11.3,30.45,SW,231,2.0,14.0,33,0.00,,,0.03,meteohub,2013-02-16 00:03:00,
2013-02-15 17:07:00,37.6,11.1,30.45,East,100,4.0,14.0,33,0.00,,,0.03,meteohub,2013-02-16 00:07:00,
2013-02-15 17:08:00,37.6,11.7,30.45,ENE,75,1.0,14.0,34,0.00,,,0.03,meteohub,2013-02-16 00:08:00,
2013-02-15 17:10:00,37.2,11.5,30.45,SSE,168,5.0,14.0,34,0.00,,,0.03,meteohub,2013-02-16 00:10:00,
2013-02-15 17:12:00,37.0,11.3,30.45,East,82,6.0,10.0,34,0.00,,,0.03,meteohub,2013-02-16 00:12:00,
2013-02-15 17:17:00,35.4,14.5,30.45,SE,126,9.0,12.0,42,0.00,,,0.03,meteohub,2013-02-16 00:17:00,
2013-02-15 17:19:00,34.9,14.7,30.45,ESE,111,12.0,12.0,43,0.00,,,0.03,meteohub,2013-02-16 00:19:00,
2013-02-15 17:22:00,34.2,15.1,30.45,ESE,114,7.0,16.0,45,0.00,,,0.03,meteohub,2013-02-16 00:22:00,
2013-02-15 17:23:00,34.0,14.9,30.45,ESE,117,12.0,16.0,45,0.00,,,0.03,meteohub,2013-02-16 00:23:00,
2013-02-15 17:24:00,33.6,15.1,30.45,ESE,117,6.0,16.0,46,0.00,,,0.03,meteohub,2013-02-16 00:24:00,
2013-02-15 17:25:00,33.6,15.1,30.45,ESE,120,8.0,16.0,46,0.00,,,0.03,meteohub,2013-02-16 00:25:00,
2013-02-15 17:28:00,33.3,15.3,30.46,ESE,119,7.0,16.0,47,0.00,,,0.03,meteohub,2013-02-16 00:28:00,
2013-02-15 17:31:00,33.1,15.4,30.45,SE,126,9.0,16.0,48,0.00,,,0.03,meteohub,2013-02-16 00:31:00,
2013-02-15 17:32:00,32.9,15.4,30.45,ESE,120,9.0,16.0,48,0.00,,,0.03,meteohub,2013-02-16 00:32:00,
2013-02-15 17:33:00,32.7,15.3,30.45,SSE,163,4.0,16.0,48,0.00,,,0.03,meteohub,2013-02-16 00:33:00,
2013-02-15 17:37:00,32.5,16.0,30.45,East,88,4.0,14.0,50,0.00,,,0.03,meteohub,2013-02-16 00:37:00,
2013-02-15 17:38:00,32.4,15.3,30.45,ESE,117,5.0,14.0,49,0.00,,,0.03,meteohub,2013-02-16 00:38:00,
2013-02-15 17:39:00,32.4,15.8,30.46,SSE,150,4.0,14.0,50,0.00,,,0.03,meteohub,2013-02-16 00:39:00,
2013-02-15 17:43:00,32.2,16.2,30.46,SE,126,4.0,13.0,51,0.00,,,0.03,meteohub,2013-02-16 00:43:00,
2013-02-15 17:44:00,32.0,16.0,30.46,SE,124,2.0,13.0,51,0.00,,,0.03,meteohub,2013-02-16 00:44:00,
2013-02-15 17:45:00,32.0,16.0,30.46,SE,124,2.0,13.0,51,0.00,,,0.03,meteohub,2013-02-16 00:45:00,
2013-02-15 17:46:00,32.0,16.0,30.46,SE,124,2.0,13.0,51,0.00,,,0.03,meteohub,2013-02-16 00:46:00,
2013-02-15 17:49:00,31.8,15.8,30.46,SE,124,2.0,13.0,51,0.00,,,0.03,meteohub,2013-02-16 00:49:00,
2013-02-15 17:50:00,31.6,15.6,30.46,SE,124,4.0,13.0,51,0.00,,,0.03,meteohub,2013-02-16 00:50:00,
2013-02-15 17:51:00,31.6,15.6,30.46,ESE,118,7.0,11.0,51,0.00,,,0.03,meteohub,2013-02-16 00:51:00,
2013-02-15 17:53:00,31.6,15.6,30.46,ESE,115,5.0,11.0,51,0.00,,,0.03,meteohub,2013-02-16 00:53:00,
2013-02-15 17:56:00,31.5,15.8,30.46,SE,128,6.0,11.0,52,0.00,,,0.03,meteohub,2013-02-16 00:56:00,
2013-02-15 17:57:00,31.5,15.8,30.46,SE,134,5.0,11.0,52,0.00,,,0.03,meteohub,2013-02-16 00:57:00,
2013-02-15 17:58:00,31.3,15.6,30.46,SE,135,2.0,11.0,52,0.00,,,0.03,meteohub,2013-02-16 00:58:00,
2013-02-15 18:01:00,31.1,16.0,30.46,SE,135,4.0,8.0,53,0.00,,,0.03,meteohub,2013-02-16 01:01:00,
2013-02-15 18:02:00,30.9,15.8,30.46,ESE,120,6.0,8.0,53,0.00,,,0.03,meteohub,2013-02-16 01:02:00,
2013-02-15 18:03:00,30.9,16.2,30.46,SE,132,4.0,8.0,54,0.00,,,0.03,meteohub,2013-02-16 01:03:00,
2013-02-15 18:06:00,30.9,16.2,30.47,SE,130,4.0,8.0,54,0.00,,,0.03,meteohub,2013-02-16 01:06:00,
2013-02-15 18:07:00,30.9,16.2,30.47,SE,135,4.0,8.0,54,0.00,,,0.03,meteohub,2013-02-16 01:07:00,
2013-02-15 18:10:00,30.9,16.2,30.47,SE,132,0.0,8.0,54,0.00,,,0.03,meteohub,2013-02-16 01:10:00,
2013-02-15 18:12:00,30.9,16.7,30.46,SE,143,0.0,8.0,55,0.00,,,0.03,meteohub,2013-02-16 01:12:00,
2013-02-15 18:15:00,30.9,16.7,30.46,SE,128,2.0,8.0,55,0.00,,,0.03,meteohub,2013-02-16 01:15:00,
2013-02-15 18:16:00,30.7,16.5,30.46,SE,128,0.0,8.0,55,0.00,,,0.03,meteohub,2013-02-16 01:16:00,
2013-02-15 18:17:00,30.7,16.5,30.46,SE,139,1.0,8.0,55,0.00,,,0.03,meteohub,2013-02-16 01:17:00,
2013-02-15 18:18:00,30.7,16.5,30.46,SE,140,1.0,8.0,55,0.00,,,0.03,meteohub,2013-02-16 01:18:00,
2013-02-15 18:21:00,30.7,16.5,30.47,SSW,195,2.0,8.0,55,0.00,,,0.03,meteohub,2013-02-16 01:21:00,
2013-02-15 18:22:00,30.7,16.5,30.47,SSW,195,0.0,8.0,55,0.00,,,0.03,meteohub,2013-02-16 01:22:00,
2013-02-15 18:23:00,30.7,16.5,30.47,SSW,195,0.0,8.0,55,0.00,,,0.03,meteohub,2013-02-16 01:23:00,
2013-02-15 18:24:00,30.6,16.3,30.47,SSW,195,0.0,8.0,55,0.00,,,0.03,meteohub,2013-02-16 01:24:00,
2013-02-15 18:27:00,30.6,16.3,30.47,SSW,195,0.0,6.0,55,0.00,,,0.03,meteohub,2013-02-16 01:27:00,
2013-02-15 18:28:00,30.4,16.2,30.47,SSW,195,1.0,6.0,55,0.00,,,0.03,meteohub,2013-02-16 01:28:00,
2013-02-15 18:31:00,30.4,16.5,30.46,SSW,195,0.0,4.0,56,0.00,,,0.03,meteohub,2013-02-16 01:31:00,
2013-02-15 18:33:00,30.2,16.3,30.47,SSW,195,0.0,4.0,56,0.00,,,0.03,meteohub,2013-02-16 01:33:00,
2013-02-15 18:34:00,30.0,16.2,30.47,SSW,195,0.0,4.0,56,0.00,,,0.03,meteohub,2013-02-16 01:34:00,
2013-02-15 18:35:00,30.0,16.2,30.46,SSW,195,0.0,4.0,56,0.00,,,0.03,meteohub,2013-02-16 01:35:00,
2013-02-15 18:36:00,30.0,16.2,30.46,SSW,195,0.0,3.0,56,0.00,,,0.03,meteohub,2013-02-16 01:36:00,
2013-02-15 18:40:00,29.8,16.0,30.46,SSW,195,0.0,3.0,56,0.00,,,0.03,meteohub,2013-02-16 01:40:00,
2013-02-15 18:42:00,29.8,16.0,30.47,SSW,195,0.0,3.0,56,0.00,,,0.03,meteohub,2013-02-16 01:42:00,
2013-02-15 18:43:00,29.8,16.0,30.47,SSW,195,0.0,3.0,56,0.00,,,0.03,meteohub,2013-02-16 01:43:00,
2013-02-15 18:47:00,29.7,15.8,30.47,SSW,195,2.0,3.0,56,0.00,,,0.03,meteohub,2013-02-16 01:47:00,
2013-02-15 18:48:00,29.5,16.2,30.46,SSW,196,2.0,3.0,57,0.00,,,0.03,meteohub,2013-02-16 01:48:00,
2013-02-15 18:49:00,29.5,16.2,30.47,SSW,193,3.0,3.0,57,0.00,,,0.03,meteohub,2013-02-16 01:49:00,
2013-02-15 18:52:00,29.3,16.0,30.47,SW,215,2.0,3.0,57,0.00,,,0.03,meteohub,2013-02-16 01:52:00,
2013-02-15 18:54:00,29.1,15.8,30.47,SSW,212,1.0,3.0,57,0.00,,,0.03,meteohub,2013-02-16 01:54:00,
2013-02-15 18:55:00,29.1,16.2,30.47,SSW,212,0.0,3.0,58,0.00,,,0.03,meteohub,2013-02-16 01:55:00,
2013-02-15 18:58:00,28.9,16.0,30.47,SSE,168,4.0,6.0,58,0.00,,,0.03,meteohub,2013-02-16 01:58:00,
2013-02-15 19:00:00,28.9,16.0,30.47,South,183,1.0,6.0,58,0.00,,,0.03,meteohub,2013-02-16 02:00:00,
2013-02-15 19:01:00,28.9,16.0,30.47,South,183,1.0,6.0,58,0.00,,,0.03,meteohub,2013-02-16 02:01:00,
2013-02-15 19:02:00,28.9,16.0,30.47,South,183,1.0,6.0,58,0.00,,,0.03,meteohub,2013-02-16 02:02:00,
2013-02-15 19:04:00,28.8,15.8,30.47,SW,219,1.0,6.0,58,0.00,,,0.03,meteohub,2013-02-16 02:04:00,
2013-02-15 19:05:00,28.8,16.2,30.47,SSW,202,2.0,6.0,59,0.00,,,0.03,meteohub,2013-02-16 02:05:00,
2013-02-15 19:07:00,28.8,16.2,30.47,South,178,1.0,6.0,59,0.00,,,0.03,meteohub,2013-02-16 02:07:00,
2013-02-15 19:08:00,28.8,16.2,30.46,South,178,0.0,6.0,59,0.00,,,0.03,meteohub,2013-02-16 02:08:00,
2013-02-15 19:10:00,28.8,16.2,30.46,SSE,166,0.0,5.0,59,0.00,,,0.03,meteohub,2013-02-16 02:10:00,
2013-02-15 19:11:00,28.8,16.2,30.46,SSE,167,0.0,5.0,59,0.00,,,0.03,meteohub,2013-02-16 02:11:00,
2013-02-15 19:16:00,28.6,16.2,30.46,SSE,167,2.0,5.0,59,0.00,,,0.03,meteohub,2013-02-16 02:16:00,
2013-02-15 19:17:00,28.6,16.2,30.46,SSE,167,4.0,5.0,59,0.00,,,0.03,meteohub,2013-02-16 02:17:00,
2013-02-15 19:18:00,28.6,16.2,30.46,SSE,167,1.0,5.0,59,0.00,,,0.03,meteohub,2013-02-16 02:18:00,
2013-02-15 19:19:00,28.6,16.2,30.46,SSE,155,4.0,5.0,59,0.00,,,0.03,meteohub,2013-02-16 02:19:00,
2013-02-15 19:22:00,28.4,16.3,30.46,SE,140,0.0,5.0,60,0.00,,,0.03,meteohub,2013-02-16 02:22:00,
2013-02-15 19:23:00,28.2,16.2,30.46,SE,145,0.0,5.0,60,0.00,,,0.03,meteohub,2013-02-16 02:23:00,
2013-02-15 19:24:00,28.2,16.2,30.46,SSE,150,0.0,5.0,60,0.00,,,0.03,meteohub,2013-02-16 02:24:00,
2013-02-15 19:27:00,28.2,16.2,30.46,South,177,2.0,5.0,60,0.00,,,0.03,meteohub,2013-02-16 02:27:00,
2013-02-15 19:28:00,28.2,16.5,30.47,South,180,3.0,5.0,61,0.00,,,0.03,meteohub,2013-02-16 02:28:00,
2013-02-15 19:29:00,28.2,16.5,30.46,SSE,159,4.0,5.0,61,0.00,,,0.03,meteohub,2013-02-16 02:29:00,
2013-02-15 19:30:00,28.2,16.5,30.47,South,179,2.0,5.0,61,0.00,,,0.03,meteohub,2013-02-16 02:30:00,
2013-02-15 19:32:00,28.2,16.5,30.46,South,169,4.0,5.0,61,0.00,,,0.03,meteohub,2013-02-16 02:32:00,
2013-02-15 19:34:00,28.2,16.5,30.46,South,169,5.0,5.0,61,0.00,,,0.03,meteohub,2013-02-16 02:34:00,
2013-02-15 19:36:00,28.0,16.3,30.46,South,172,5.0,8.0,61,0.00,,,0.03,meteohub,2013-02-16 02:36:00,
2013-02-15 19:38:00,28.0,16.7,30.46,SSE,158,5.0,8.0,62,0.00,,,0.03,meteohub,2013-02-16 02:38:00,
2013-02-15 19:39:00,28.0,16.7,30.46,SSE,161,4.0,8.0,62,0.00,,,0.03,meteohub,2013-02-16 02:39:00,
2013-02-15 19:41:00,28.2,16.9,30.46,SSE,153,4.0,8.0,62,0.00,,,0.03,meteohub,2013-02-16 02:41:00,
2013-02-15 19:42:00,28.2,16.9,30.46,SSE,153,2.0,8.0,62,0.00,,,0.03,meteohub,2013-02-16 02:42:00,
2013-02-15 19:43:00,28.2,16.9,30.46,South,169,4.0,8.0,62,0.00,,,0.03,meteohub,2013-02-16 02:43:00,
2013-02-15 19:46:00,28.2,16.9,30.46,SE,126,6.0,7.0,62,0.00,,,0.03,meteohub,2013-02-16 02:46:00,
2013-02-15 19:47:00,28.2,16.9,30.46,SSE,155,1.0,7.0,62,0.00,,,0.03,meteohub,2013-02-16 02:47:00,
2013-02-15 19:49:00,28.2,16.9,30.46,SE,136,5.0,7.0,62,0.00,,,0.03,meteohub,2013-02-16 02:49:00,
2013-02-15 19:52:00,28.2,16.9,30.46,South,169,5.0,9.0,62,0.00,,,0.03,meteohub,2013-02-16 02:52:00,
2013-02-15 19:54:00,28.6,17.2,30.45,South,190,3.0,9.0,62,0.00,,,0.03,meteohub,2013-02-16 02:54:00,
2013-02-15 19:55:00,28.6,16.9,30.45,SSE,165,8.0,9.0,61,0.00,,,0.03,meteohub,2013-02-16 02:55:00,
2013-02-15 19:57:00,28.6,16.9,30.45,SSE,166,9.0,9.0,61,0.00,,,0.03,meteohub,2013-02-16 02:57:00,
2013-02-15 19:58:00,28.6,16.9,30.45,SSE,166,9.0,9.0,61,0.00,,,0.03,meteohub,2013-02-16 02:58:00,
2013-02-15 20:01:00,28.6,17.2,30.45,South,191,0.0,9.0,62,0.00,,,0.03,meteohub,2013-02-16 03:01:00,
2013-02-15 20:02:00,28.6,17.2,30.45,South,191,0.0,9.0,62,0.00,,,0.03,meteohub,2013-02-16 03:02:00,
2013-02-15 20:03:00,28.6,17.2,30.45,SSW,193,0.0,9.0,62,0.00,,,0.03,meteohub,2013-02-16 03:03:00,
2013-02-15 20:07:00,28.4,17.1,30.45,SSE,161,2.0,9.0,62,0.00,,,0.03,meteohub,2013-02-16 03:07:00,
2013-02-15 20:09:00,28.4,17.1,30.45,SSE,165,0.0,9.0,62,0.00,,,0.03,meteohub,2013-02-16 03:09:00,
2013-02-15 20:10:00,28.2,16.9,30.45,SSE,165,1.0,9.0,62,0.00,,,0.03,meteohub,2013-02-16 03:10:00,
2013-02-15 20:12:00,28.2,16.9,30.45,South,189,3.0,9.0,62,0.00,,,0.03,meteohub,2013-02-16 03:12:00,
2013-02-15 20:16:00,28.2,16.5,30.44,SSW,194,6.0,6.0,61,0.00,,,0.03,meteohub,2013-02-16 03:16:00,
2013-02-15 20:17:00,28.2,16.9,30.44,South,182,4.0,5.0,62,0.00,,,0.03,meteohub,2013-02-16 03:17:00,
2013-02-15 20:20:00,28.0,16.7,30.44,SSE,161,4.0,5.0,62,0.00,,,0.03,meteohub,2013-02-16 03:20:00,
2013-02-15 20:22:00,28.0,16.7,30.44,SSE,159,4.0,10.0,62,0.00,,,0.03,meteohub,2013-02-16 03:22:00,
2013-02-15 20:23:00,28.0,16.7,30.44,SSE,159,2.0,10.0,62,0.00,,,0.03,meteohub,2013-02-16 03:23:00,
2013-02-15 20:25:00,27.9,16.5,30.44,SSE,162,1.0,10.0,62,0.00,,,0.03,meteohub,2013-02-16 03:25:00,
2013-02-15 20:27:00,27.9,16.5,30.44,SSE,162,2.0,10.0,62,0.00,,,0.03,meteohub,2013-02-16 03:27:00,
2013-02-15 20:28:00,27.9,16.5,30.44,SSW,194,0.0,10.0,62,0.00,,,0.03,meteohub,2013-02-16 03:28:00,
2013-02-15 20:31:00,27.7,16.3,30.44,SSW,194,0.0,10.0,62,0.00,,,0.03,meteohub,2013-02-16 03:31:00,
2013-02-15 20:32:00,27.7,16.3,30.44,SSW,194,0.0,10.0,62,0.00,,,0.03,meteohub,2013-02-16 03:32:00,
2013-02-15 20:34:00,27.7,16.3,30.43,SSE,148,0.0,10.0,62,0.00,,,0.03,meteohub,2013-02-16 03:34:00,
2013-02-15 20:37:00,27.3,16.0,30.44,SW,230,3.0,7.0,62,0.00,,,0.03,meteohub,2013-02-16 03:37:00,
2013-02-15 20:39:00,27.3,16.3,30.44,SW,230,3.0,7.0,63,0.00,,,0.03,meteohub,2013-02-16 03:39:00,
2013-02-15 20:40:00,27.3,16.3,30.44,SW,230,3.0,5.0,63,0.00,,,0.03,meteohub,2013-02-16 03:40:00,
2013-02-15 20:42:00,27.3,16.3,30.44,SW,230,3.0,5.0,63,0.00,,,0.03,meteohub,2013-02-16 03:42:00,
2013-02-15 20:44:00,27.1,16.2,30.44,SW,230,3.0,5.0,63,0.00,,,0.03,meteohub,2013-02-16 03:44:00,
2013-02-15 20:45:00,27.1,16.2,30.43,SW,230,3.0,5.0,63,0.00,,,0.03,meteohub,2013-02-16 03:45:00,
2013-02-15 20:47:00,27.3,16.3,30.43,SW,230,3.0,5.0,63,0.00,,,0.03,meteohub,2013-02-16 03:47:00,
2013-02-15 20:48:00,27.3,16.3,30.43,North,-999,-999.0,5.0,63,0.00,,,0.03,meteohub,2013-02-16 03:48:00,
2013-02-15 20:50:00,27.3,16.3,30.43,North,-999,-999.0,5.0,63,0.00,,,0.03,meteohub,2013-02-16 03:50:00,
2013-02-15 20:51:00,27.3,16.3,30.43,North,-999,-999.0,3.0,63,0.00,,,0.03,meteohub,2013-02-16 03:51:00,
2013-02-15 20:54:00,27.3,16.3,30.44,North,-999,-999.0,3.0,63,0.00,,,0.03,meteohub,2013-02-16 03:54:00,
2013-02-15 20:56:00,27.3,16.3,30.43,North,-999,-999.0,3.0,63,0.00,,,0.03,meteohub,2013-02-16 03:56:00,
2013-02-15 20:57:00,27.3,16.3,30.43,North,-999,-999.0,3.0,63,0.00,,,0.03,meteohub,2013-02-16 03:57:00,
2013-02-15 21:00:00,27.1,16.2,30.43,North,-999,-999.0,3.0,63,0.00,,,0.03,meteohub,2013-02-16 04:00:00,
2013-02-15 21:02:00,27.1,16.5,30.43,North,-999,-999.0,-999.0,64,0.00,,,0.03,meteohub,2013-02-16 04:02:00,
2013-02-15 21:05:00,27.1,16.5,30.43,North,-999,-999.0,-999.0,64,0.00,,,0.03,meteohub,2013-02-16 04:05:00,
2013-02-15 21:10:00,27.1,16.9,30.42,South,173,2.0,-999.0,65,0.00,,,0.03,meteohub,2013-02-16 04:10:00,
2013-02-15 21:12:00,27.1,16.9,30.42,SSW,200,3.0,0.0,65,0.00,,,0.03,meteohub,2013-02-16 04:12:00,
2013-02-15 21:13:00,27.1,16.9,30.42,South,180,1.0,0.0,65,0.00,,,0.03,meteohub,2013-02-16 04:13:00,
2013-02-15 21:16:00,27.0,16.7,30.42,SSE,165,1.0,6.0,65,0.00,,,0.03,meteohub,2013-02-16 04:16:00,
2013-02-15 21:17:00,27.0,16.7,30.42,SSE,165,0.0,6.0,65,0.00,,,0.03,meteohub,2013-02-16 04:17:00,
2013-02-15 21:18:00,27.0,16.7,30.42,SSE,157,4.0,6.0,65,0.00,,,0.03,meteohub,2013-02-16 04:18:00,
2013-02-15 21:21:00,27.0,17.1,30.42,SSE,158,0.0,6.0,66,0.00,,,0.03,meteohub,2013-02-16 04:21:00,
2013-02-15 21:22:00,27.0,17.1,30.42,SSE,158,0.0,6.0,66,0.00,,,0.03,meteohub,2013-02-16 04:22:00,
2013-02-15 21:23:00,27.0,17.1,30.42,SSE,159,2.0,6.0,66,0.00,,,0.03,meteohub,2013-02-16 04:23:00,
2013-02-15 21:26:00,27.0,16.7,30.42,South,182,0.0,5.0,65,0.00,,,0.03,meteohub,2013-02-16 04:26:00,
2013-02-15 21:28:00,26.8,16.5,30.42,SSE,157,2.0,5.0,65,0.00,,,0.03,meteohub,2013-02-16 04:28:00,
2013-02-15 21:29:00,26.8,16.5,30.42,SSE,157,0.0,5.0,65,0.00,,,0.03,meteohub,2013-02-16 04:29:00,
2013-02-15 21:31:00,26.8,16.5,30.42,SSE,159,5.0,5.0,65,0.00,,,0.03,meteohub,2013-02-16 04:31:00,
2013-02-15 21:34:00,26.6,16.7,30.42,South,173,1.0,5.0,66,0.00,,,0.03,meteohub,2013-02-16 04:34:00,
2013-02-15 21:36:00,26.4,16.5,30.42,South,173,0.0,5.0,66,0.00,,,0.03,meteohub,2013-02-16 04:36:00,
2013-02-15 21:37:00,26.4,16.5,30.42,South,173,0.0,5.0,66,0.00,,,0.03,meteohub,2013-02-16 04:37:00,
2013-02-15 21:39:00,26.4,16.5,30.42,South,173,0.0,5.0,66,0.00,,,0.03,meteohub,2013-02-16 04:39:00,
2013-02-15 21:40:00,26.4,16.5,30.42,South,173,1.0,5.0,66,0.00,,,0.03,meteohub,2013-02-16 04:40:00,
2013-02-15 21:42:00,26.2,16.5,30.42,South,173,0.0,5.0,66,0.00,,,0.03,meteohub,2013-02-16 04:42:00,
2013-02-15 21:43:00,26.2,16.5,30.42,South,173,0.0,5.0,66,0.00,,,0.03,meteohub,2013-02-16 04:43:00,
2013-02-15 21:46:00,26.2,16.5,30.42,South,173,1.0,5.0,66,0.00,,,0.03,meteohub,2013-02-16 04:46:00,
2013-02-15 21:47:00,26.2,16.5,30.42,South,173,0.0,5.0,66,0.00,,,0.03,meteohub,2013-02-16 04:47:00,
2013-02-15 21:48:00,26.1,16.3,30.42,South,173,0.0,5.0,66,0.00,,,0.03,meteohub,2013-02-16 04:48:00,
2013-02-15 21:52:00,26.1,16.3,30.41,South,173,0.0,2.0,66,0.00,,,0.03,meteohub,2013-02-16 04:52:00,
2013-02-15 21:54:00,25.9,16.2,30.41,South,173,0.0,2.0,66,0.00,,,0.03,meteohub,2013-02-16 04:54:00,
2013-02-15 21:55:00,25.9,16.2,30.41,South,173,0.0,2.0,66,0.00,,,0.03,meteohub,2013-02-16 04:55:00,
2013-02-15 21:57:00,25.9,16.2,30.41,South,182,0.0,2.0,66,0.00,,,0.03,meteohub,2013-02-16 04:57:00,
2013-02-15 22:00:00,25.7,16.0,30.40,South,182,0.0,2.0,66,0.00,,,0.03,meteohub,2013-02-16 05:00:00,
2013-02-15 22:01:00,25.7,16.0,30.40,South,182,0.0,4.0,66,0.00,,,0.03,meteohub,2013-02-16 05:01:00,
2013-02-15 22:02:00,25.7,16.3,30.40,South,182,0.0,4.0,67,0.00,,,0.03,meteohub,2013-02-16 05:02:00,
2013-02-15 22:05:00,25.5,16.2,30.40,South,182,0.0,4.0,67,0.00,,,0.03,meteohub,2013-02-16 05:05:00,
2013-02-15 22:06:00,25.5,16.2,30.40,South,182,0.0,4.0,67,0.00,,,0.03,meteohub,2013-02-16 05:06:00,
2013-02-15 22:07:00,25.5,16.2,30.40,South,182,0.0,4.0,67,0.00,,,0.03,meteohub,2013-02-16 05:07:00,
2013-02-15 22:11:00,25.3,16.0,30.40,SSW,201,0.0,4.0,67,0.00,,,0.03,meteohub,2013-02-16 05:11:00,
2013-02-15 22:12:00,25.3,16.0,30.40,SSW,201,0.0,4.0,67,0.00,,,0.03,meteohub,2013-02-16 05:12:00,
2013-02-15 22:13:00,25.3,16.0,30.40,SSW,201,3.0,4.0,67,0.00,,,0.03,meteohub,2013-02-16 05:13:00,
2013-02-15 22:17:00,25.2,15.8,30.40,SSW,206,0.0,4.0,67,0.00,,,0.03,meteohub,2013-02-16 05:17:00,
2013-02-15 22:18:00,25.2,15.8,30.40,SSW,206,0.0,4.0,67,0.00,,,0.03,meteohub,2013-02-16 05:18:00,
2013-02-15 22:23:00,25.0,16.0,30.40,SSW,206,1.0,4.0,68,0.00,,,0.03,meteohub,2013-02-16 05:23:00,
2013-02-15 22:24:00,25.0,16.0,30.39,SSW,206,0.0,4.0,68,0.00,,,0.03,meteohub,2013-02-16 05:24:00,
2013-02-15 22:28:00,25.0,16.0,30.39,SSW,206,0.0,3.0,68,0.00,,,0.03,meteohub,2013-02-16 05:28:00,
2013-02-15 22:29:00,24.8,15.8,30.39,SSW,206,0.0,3.0,68,0.00,,,0.03,meteohub,2013-02-16 05:29:00,
2013-02-15 22:30:00,24.8,15.8,30.40,SSW,206,0.0,3.0,68,0.00,,,0.03,meteohub,2013-02-16 05:30:00,
2013-02-15 22:34:00,24.6,15.6,30.40,SSW,206,0.0,2.0,68,0.00,,,0.03,meteohub,2013-02-16 05:34:00,
2013-02-15 22:35:00,24.6,15.6,30.39,SSW,206,0.0,2.0,68,0.00,,,0.03,meteohub,2013-02-16 05:35:00,
2013-02-15 22:36:00,24.6,15.6,30.39,SSW,206,0.0,2.0,68,0.00,,,0.03,meteohub,2013-02-16 05:36:00,
2013-02-15 22:39:00,24.6,15.6,30.39,SSW,206,0.0,2.0,68,0.00,,,0.03,meteohub,2013-02-16 05:39:00,
2013-02-15 22:41:00,24.4,15.4,30.39,SSW,206,0.0,0.0,68,0.00,,,0.03,meteohub,2013-02-16 05:41:00,
2013-02-15 22:42:00,24.4,15.8,30.39,SSW,206,2.0,0.0,69,0.00,,,0.03,meteohub,2013-02-16 05:42:00,
2013-02-15 22:45:00,24.4,15.8,30.39,SSW,206,0.0,2.0,69,0.00,,,0.03,meteohub,2013-02-16 05:45:00,
2013-02-15 22:46:00,24.3,15.6,30.39,SSW,206,0.0,2.0,69,0.00,,,0.03,meteohub,2013-02-16 05:46:00,
2013-02-15 22:47:00,24.3,15.6,30.39,SSW,206,0.0,2.0,69,0.00,,,0.03,meteohub,2013-02-16 05:47:00,
2013-02-15 22:52:00,24.3,15.6,30.39,SSW,206,0.0,2.0,69,0.00,,,0.03,meteohub,2013-02-16 05:52:00,
2013-02-15 22:53:00,24.3,15.6,30.39,SSW,206,0.0,2.0,69,0.00,,,0.03,meteohub,2013-02-16 05:53:00,
2013-02-15 22:54:00,24.3,15.6,30.39,SSW,206,0.0,2.0,69,0.00,,,0.03,meteohub,2013-02-16 05:54:00,
2013-02-15 22:58:00,24.1,15.4,30.39,SSW,206,1.0,2.0,69,0.00,,,0.03,meteohub,2013-02-16 05:58:00,
2013-02-15 23:00:00,24.1,15.8,30.39,SSW,206,0.0,2.0,70,0.00,,,0.03,meteohub,2013-02-16 06:00:00,
2013-02-15 23:01:00,24.1,15.8,30.39,SSW,206,0.0,3.0,70,0.00,,,0.03,meteohub,2013-02-16 06:01:00,
2013-02-15 23:05:00,23.9,15.6,30.39,SSW,206,0.0,3.0,70,0.00,,,0.03,meteohub,2013-02-16 06:05:00,
2013-02-15 23:06:00,23.9,15.6,30.39,SSW,206,0.0,3.0,70,0.00,,,0.03,meteohub,2013-02-16 06:06:00,
2013-02-15 23:07:00,23.9,15.6,30.39,SSW,206,0.0,3.0,70,0.00,,,0.03,meteohub,2013-02-16 06:07:00,
2013-02-15 23:12:00,23.7,15.4,30.38,SSW,206,0.0,3.0,70,0.00,,,0.03,meteohub,2013-02-16 06:12:00,
2013-02-15 23:13:00,23.7,15.4,30.38,SSW,206,0.0,3.0,70,0.00,,,0.03,meteohub,2013-02-16 06:13:00,
2013-02-15 23:14:00,23.7,15.4,30.38,SSW,206,0.0,3.0,70,0.00,,,0.03,meteohub,2013-02-16 06:14:00,
2013-02-15 23:16:00,23.7,15.4,30.38,SSW,206,0.0,2.0,70,0.00,,,0.03,meteohub,2013-02-16 06:16:00,
2013-02-15 23:17:00,23.7,15.4,30.38,SSW,206,0.0,2.0,70,0.00,,,0.03,meteohub,2013-02-16 06:17:00,
2013-02-15 23:19:00,23.5,15.3,30.38,SSW,206,0.0,2.0,70,0.00,,,0.03,meteohub,2013-02-16 06:19:00,
2013-02-15 23:20:00,23.5,15.3,30.38,SSW,206,0.0,2.0,70,0.00,,,0.03,meteohub,2013-02-16 06:20:00,
2013-02-15 23:23:00,23.5,15.3,30.38,SSW,206,0.0,1.0,70,0.00,,,0.03,meteohub,2013-02-16 06:23:00,
2013-02-15 23:24:00,23.5,15.3,30.38,SSW,206,1.0,1.0,70,0.00,,,0.03,meteohub,2013-02-16 06:24:00,
2013-02-15 23:25:00,23.4,15.1,30.38,SSW,206,2.0,2.0,70,0.00,,,0.03,meteohub,2013-02-16 06:25:00,
2013-02-15 23:27:00,23.4,15.1,30.38,SSW,207,2.0,2.0,70,0.00,,,0.03,meteohub,2013-02-16 06:27:00,
2013-02-15 23:29:00,23.2,14.9,30.38,SSW,207,0.0,1.0,70,0.00,,,0.03,meteohub,2013-02-16 06:29:00,
2013-02-15 23:30:00,23.2,14.9,30.38,SSW,207,0.0,1.0,70,0.00,,,0.03,meteohub,2013-02-16 06:30:00,
2013-02-15 23:32:00,23.2,14.9,30.38,SSW,207,2.0,3.0,70,0.00,,,0.03,meteohub,2013-02-16 06:32:00,
2013-02-15 23:34:00,23.0,15.1,30.37,SSW,207,2.0,3.0,71,0.00,,,0.03,meteohub,2013-02-16 06:34:00,
2013-02-15 23:37:00,22.8,14.9,30.37,SSW,207,2.0,3.0,71,0.00,,,0.03,meteohub,2013-02-16 06:37:00,
2013-02-15 23:39:00,22.8,15.1,30.37,SSW,207,1.0,3.0,72,0.00,,,0.03,meteohub,2013-02-16 06:39:00,
2013-02-15 23:42:00,22.8,15.1,30.37,SSW,207,0.0,4.0,72,0.00,,,0.03,meteohub,2013-02-16 06:42:00,
2013-02-15 23:44:00,22.8,15.1,30.37,SSW,207,0.0,4.0,72,0.00,,,0.03,meteohub,2013-02-16 06:44:00,
2013-02-15 23:45:00,22.8,15.1,30.37,SSW,207,0.0,4.0,72,0.00,,,0.03,meteohub,2013-02-16 06:45:00,
2013-02-15 23:47:00,22.8,15.1,30.37,SSW,207,1.0,4.0,72,0.00,,,0.03,meteohub,2013-02-16 06:47:00,
2013-02-15 23:49:00,22.6,14.9,30.37,SSW,207,0.0,4.0,72,0.00,,,0.03,meteohub,2013-02-16 06:49:00,
2013-02-15 23:50:00,22.6,14.9,30.37,SSW,207,2.0,4.0,72,0.00,,,0.03,meteohub,2013-02-16 06:50:00,
2013-02-15 23:56:00,22.5,14.7,30.37,West,270,1.0,4.0,72,0.00,,,0.03,meteohub,2013-02-16 06:56:00,
2013-02-15 23:57:00,22.5,14.7,30.37,West,270,0.0,4.0,72,0.00,,,0.03,meteohub,2013-02-16 06:57:00,
2013-02-15 23:58:00,22.5,14.7,30.37,West,270,0.0,4.0,72,0.00,,,0.03,meteohub,2013-02-16 06:58:00,